[{"header": {"dx": 0.06612293990616946, "dy": 0.0552356325346848, "nx": 98, "ny": 59, "la1": 35.046912555036876, "la2": 31.78801023549047, "lo1": -121.43107172385933, "lo2": -114.95102361305473, "refTime": "2026041602", "parameterCategory": 1, "parameterNumber": 2}, "data": [10.74, 10.74, 10.74, 11.04, 11.1, 11.1, 11.08, 11.06, 11.03, 10.72, 10.36, 9.42, 11.21, 11.33, 11.3, 11.51, 11.62, 11.18, 11.62, 12.52, 12.96, 12.96, 11.62, 11.18, 8.73, 0.0, -5.4, -5.6, -3.82, -3.82, -2.06, 0.0, 0.0, 2.71, 4.6, 4.4, 6.64, 6.64, 6.64, 8.03, 8.18, 8.59, 9.67, 9.82, 11.72, 13.02, 14.22, 12.96, 12.82, 13.86, 14.3, 14.7, 15.02, 15.49, 15.49, 15.34, 15.38, 15.38, 14.94, 14.47, 14.62, 14.62, 14.47, 14.03, 13.74, 14.06, 14.06, 14.06, 14.69, 15.55, 15.74, 15.3, 15.49, 15.46, 15.46, 15.61, 14.71, 14.3, 14.75, 14.75, 14.3, 13.41, 12.58, 6.94, -0.0, -0.0, -0.0, -0.0, 2.19, 2.19, 2.45, 2.2, 2.28, 4.66, 5.48, 7.36, 8.1, 10.12, 10.74, 10.47, 10.47, 10.76, 10.76, 11.4, 11.08, 11.06, 11.03, 10.43, 9.8, 10.22, 10.12, 10.73, 11.92, 11.45, 10.58, 12.07, 12.07, 11.4, 13.41, 12.96, 12.96, 12.96, 9.2, 0.0, -5.2, -5.4, -5.4, -5.6, -5.31, -2.72, 0.0, 0.0, 2.54, 4.96, 5.69, 6.32, 6.64, 7.27, 8.85, 9.48, 9.96, 9.69, 11.64, 13.03, 13.19, 13.02, 13.79, 14.75, 14.75, 15.2, 15.15, 15.17, 15.07, 15.51, 15.51, 15.07, 15.07, 14.62, 14.62, 14.62, 14.18, 13.74, 13.74, 13.62, 14.06, 14.06, 14.94, 15.78, 16.22, 15.93, 15.91, 15.16, 15.16, 14.71, 14.71, 14.3, 14.75, 14.75, 14.3, 13.41, 12.58, 6.94, -0.0, -0.0, -0.0, -0.0, 2.19, 2.19, 2.45, 2.2, 2.28, 4.66, 5.48, 7.36, 8.1, 10.12, 10.1, 10.1, 10.76, 10.76, 10.76, 11.06, 11.1, 11.06, 10.75, 10.43, 9.8, 7.93, 10.12, 10.04, 10.62, 10.88, 11.28, 11.18, 11.45, 12.58, 10.79, 12.14, 11.87, 12.72, 9.8, 0.0, -4.8, -5.95, -4.4, -4.58, -5.81, -4.81, 0.0, 0.0, 2.06, 4.96, 6.01, 6.32, 6.3, 7.44, 8.53, 8.53, 9.59, 10.3, 11.76, 12.6, 12.51, 13.34, 14.75, 15.2, 15.2, 15.2, 15.2, 15.2, 14.72, 15.16, 15.17, 15.17, 14.72, 14.62, 14.62, 14.18, 13.59, 13.62, 13.59, 14.03, 14.5, 15.38, 15.38, 15.95, 15.95, 15.93, 15.49, 15.05, 14.58, 14.71, 15.15, 15.2, 14.3, 14.75, 14.3, 13.41, 12.3, 2.93, -0.0, -0.0, -0.0, -0.0, -0.0, 2.45, 2.81, 2.89, 2.89, 5.48, 7.36, 8.05, 9.17, 10.73, 10.1, 10.39, 10.11, 10.47, 10.47, 10.47, 11.1, 11.08, 10.76, 10.43, 9.5, 8.24, 8.85, 9.17, 9.86, 10.4, 10.88, 11.09, 10.68, 11.45, 10.6, 10.84, 10.0, 10.0, 8.53, 0.0, -4.6, -5.46, -3.87, -3.92, -4.24, -3.36, -3.79, 0.0, 3.96, 4.8, 6.17, 7.59, 6.17, 7.14, 7.82, 9.17, 10.03, 10.56, 11.39, 12.51, 13.79, 14.3, 14.75, 14.75, 14.75, 15.2, 14.75, 14.75, 14.75, 14.75, 14.72, 14.72, 14.62, 14.18, 14.47, 14.03, 14.06, 13.62, 13.59, 14.47, 15.38, 15.41, 16.97, 17.35, 15.9, 15.25, 15.25, 14.42, 14.16, 13.82, 14.75, 15.2, 15.2, 13.86, 13.41, 13.41, 7.19, -0.0, -2.19, -1.91, -1.98, -0.0, -0.0, -0.0, -0.0, -0.0, 2.72, 6.0, 7.78, 10.73, 11.12, 10.01, 9.83, 10.11, 10.11, 10.11, 10.47, 10.76, 10.76, 11.1, 10.76, 10.43, 9.19, 8.24, 8.07, 8.22, 8.94, 9.86, 10.16, 10.4, 10.68, 10.04, 10.37, 8.85, 9.67, 10.4, 8.38, 2.93, -3.04, -5.4, -2.19, -2.49, -2.33, -2.42, -2.52, 0.0, 2.35, 4.52, 6.8, 7.69, 6.67, 6.92, 7.96, 9.76, 11.72, 12.66, 13.27, 13.53, 14.22, 14.3, 14.75, 15.2, 14.75, 14.3, 14.3, 14.75, 14.75, 14.75, 14.71, 14.62, 14.62, 14.03, 14.03, 13.59, 13.59, 14.47, 14.47, 16.22, 16.61, 15.9, 16.64, 17.99, 17.59, 16.51, 17.11, 16.54, 15.43, 12.96, 13.86, 14.25, 13.77, 13.41, 12.83, 12.58, -0.0, -2.71, -5.75, -4.32, -2.37, -0.0, -0.0, -0.0, -0.0, 3.14, 3.04, 7.19, 9.17, 10.73, 10.37, 7.51, 9.73, 10.11, 10.11, 10.11, 10.47, 10.76, 10.76, 10.76, 10.47, 10.13, 8.58, 7.33, 8.07, 8.75, 8.49, 8.94, 9.48, 9.46, 8.49, 8.22, 6.76, 5.4, 4.98, 6.0, 7.51, 2.93, -2.37, -2.37, -2.54, -2.37, -1.22, 0.0, 0.0, 1.02, 2.37, 3.01, 4.71, 8.15, 6.59, 5.43, 6.63, 10.12, 12.03, 13.57, 14.03, 14.66, 14.75, 14.3, 14.3, 14.3, 13.86, 13.86, 13.86, 14.26, 14.71, 14.6, 14.6, 14.47, 14.47, 14.06, 13.62, 13.29, 14.62, 15.05, 15.74, 16.24, 16.09, 13.95, 14.33, 17.38, 19.59, 17.99, 16.64, 17.94, 18.08, 16.54, 13.34, 12.88, 12.83, 12.79, 12.07, 3.68, -5.0, -6.97, -8.22, -6.97, -5.4, -3.25, -3.58, -0.0, -0.0, 3.25, 7.44, 7.19, 9.17, 8.05, 4.81, 4.65, 9.73, 9.73, 10.11, 10.11, 10.11, 10.76, 10.76, 10.47, 10.77, 9.84, 8.24, 6.61, 7.26, 8.82, 9.82, 8.58, 8.94, 9.3, 8.75, 7.9, 7.9, 6.97, 4.54, 2.93, 2.06, 0.0, -2.82, -2.93, -2.45, -1.52, 0.0, 0.0, 1.09, 2.97, 3.53, 2.81, 4.39, 8.05, 8.22, 3.61, 2.45, 4.1, 10.12, 14.42, 15.65, 15.2, 15.97, 15.11, 13.79, 13.75, 14.19, 13.63, 14.07, 14.31, 13.94, 13.55, 13.99, 13.99, 14.18, 13.75, 13.38, 13.38, 15.16, 15.91, 15.06, 13.55, 13.26, 13.01, 13.2, 16.51, 19.51, 18.66, 16.55, 16.35, 16.94, 16.99, 15.2, 13.41, 13.41, 13.41, 10.4, -2.82, -7.24, -9.66, -10.8, -11.2, -11.53, -10.12, -10.12, -6.0, -6.0, -0.0, 4.24, 4.24, 3.25, 2.54, 2.45, 1.98, 9.47, 9.47, 9.84, 10.11, 10.11, 10.76, 10.47, 10.47, 10.47, 9.5, 7.96, 6.2, 7.14, 8.22, 9.66, 8.79, 9.52, 9.89, 8.69, 8.75, 8.94, 9.77, 10.04, 8.53, 5.54, 0.0, -7.27, -10.73, 0.0, -2.19, 0.0, 0.0, 1.58, 3.39, 3.53, 2.42, 1.69, 0.0, 12.52, 0.0, 0.0, 12.07, 12.52, 12.39, 10.43, 14.39, 13.58, 14.71, 13.48, 13.88, 11.99, 12.94, 13.15, 13.15, 13.5, 13.72, 13.72, 13.82, 13.41, 12.96, 12.07, 13.41, 15.15, 13.99, 10.69, 11.36, 13.15, 13.99, 13.86, 15.18, 17.64, 18.26, 16.09, 15.65, 15.2, 14.75, 14.3, 13.41, 12.96, 14.3, 7.13, -0.0, -5.4, -11.2, -12.14, -13.41, -13.41, -13.41, -12.96, -12.96, -11.6, -5.8, -0.0, -0.0, -0.0, -0.0, 1.98, 1.91, 9.47, 9.47, 9.47, 9.84, 9.84, 10.76, 10.47, 10.47, 10.13, 9.5, 7.59, 5.89, 6.3, 6.72, 7.54, 8.02, 8.02, 8.53, 8.22, 7.9, 8.73, 10.4, 10.79, 11.34, 10.8, 11.2, -0.0, -0.0, 10.28, 0.0, 0.0, 0.0, 2.6, 3.53, 5.75, 3.82, 0.0, -7.59, -0.0, -0.0, -0.0, 3.96, 6.94, 9.48, 11.9, 12.39, 14.94, 15.77, 14.71, 14.11, 13.81, 12.18, 12.72, 13.44, 13.7, 13.82, 13.86, 12.94, 12.49, 11.96, 12.48, 15.2, 13.97, 8.68, 8.64, 12.63, 14.71, 14.65, 14.13, 14.51, 16.09, 16.54, 16.49, 15.51, 14.62, 14.26, 13.8, 12.96, 13.41, 14.11, 7.1, 5.28, 2.81, -9.8, -12.52, -12.52, -12.96, -12.3, -12.14, -12.96, -9.17, -5.8, -2.13, -0.0, -0.0, 2.06, 1.91, 1.98, 9.47, 9.47, 9.47, 9.84, 10.13, 10.13, 10.47, 9.84, 9.84, 8.86, 7.57, 7.16, 6.94, 6.27, 6.15, 6.31, 7.19, 6.53, 5.4, 5.0, 4.8, 5.92, 8.22, 8.75, 9.09, 10.0, 6.95, -0.0, 10.73, 9.2, 7.59, 11.18, 9.83, 10.73, 11.62, 11.62, -0.0, -0.0, 5.2, 10.41, 9.42, 9.77, 10.04, 10.4, 11.18, 12.83, 13.31, 13.96, 14.3, 13.99, 13.19, 13.43, 13.44, 13.67, 13.81, 14.3, 13.86, 12.03, 10.93, 12.2, 14.68, 14.79, 6.87, 6.66, 8.64, 11.58, 14.11, 13.18, 12.66, 14.19, 14.75, 15.6, 15.78, 15.78, 15.34, 13.59, 12.94, 11.35, 11.95, 11.44, 8.06, 10.15, 10.76, 4.95, -12.39, -13.01, -12.39, -12.39, -13.41, -9.17, -4.81, -3.96, -2.06, -0.0, -0.0, 2.06, 2.06, 2.06, 9.47, 9.47, 9.47, 9.84, 10.13, 10.13, 10.13, 10.13, 9.49, 8.86, 8.22, 8.2, 8.2, 7.57, 7.63, 6.56, 6.7, 5.89, 6.15, 6.36, 6.4, 6.6, 6.64, 7.18, 7.54, 7.59, 10.28, 9.83, 9.83, 8.8, 10.28, -0.0, -0.0, -0.0, 6.95, 11.62, 10.4, 8.22, 8.22, 10.41, 11.26, 10.41, 10.68, 11.45, 11.46, 11.51, 11.98, 11.72, 11.6, 11.37, 12.9, 13.39, 14.07, 14.07, 13.65, 13.46, 14.79, 13.77, 9.6, 13.23, 10.46, 5.14, 5.23, 5.78, 6.74, 9.01, 10.32, 10.25, 11.54, 12.04, 13.86, 14.58, 15.16, 14.94, 14.11, 12.33, 10.85, 10.21, 14.3, 7.82, 8.06, 10.3, 12.03, 12.9, 11.38, -14.75, -10.75, -15.2, -10.12, -4.98, -2.06, -1.77, -1.77, -0.0, -0.0, 2.13, 4.1, 4.1, 9.47, 9.47, 9.47, 9.84, 10.13, 10.13, 10.13, 10.13, 9.22, 8.86, 8.2, 8.2, 8.85, 8.86, 8.56, 8.22, 8.6, 8.53, 9.76, 11.53, 12.56, 13.19, 13.02, 14.38, 12.72, 12.14, 12.07, -8.49, -10.73, 10.73, 11.18, 4.8, -0.0, 7.27, 9.2, 10.18, 8.93, 8.22, 8.22, 10.04, 10.87, 10.48, 10.68, 11.03, 10.52, 10.14, 11.45, 10.41, 9.17, 9.8, 10.99, 12.56, 12.22, 8.17, 6.08, 5.52, 7.47, 12.02, 12.07, -4.38, -0.0, 3.84, 4.49, 4.42, 4.15, 4.66, 7.07, 8.77, 12.07, 14.75, 14.47, 13.86, 13.99, 13.34, 10.94, 9.2, 10.16, 13.7, 13.99, 9.39, 10.47, 12.22, 13.82, 14.3, 15.92, 18.24, 17.43, 8.43, -0.0, -1.96, -1.55, -1.64, -1.44, -0.0, -0.0, 1.83, 4.1, 3.56, 8.81, 9.47, 9.47, 9.84, 10.13, 10.13, 9.84, 9.84, 9.22, 8.86, 8.58, 8.58, 8.58, 9.21, 9.8, 10.01, 11.12, 11.6, 12.72, 13.5, 14.03, 14.65, 15.18, 14.75, 14.3, 13.86, 13.41, 12.96, -11.71, -8.8, -0.0, 5.0, 7.59, 9.2, 7.27, 8.55, 8.23, 8.73, 8.73, 9.3, 10.4, 10.68, 10.75, 9.7, 10.28, 10.73, 8.22, 6.7, 7.19, 9.48, 8.85, 8.38, 6.4, 2.15, -0.0, 6.81, 10.35, 16.12, 14.39, -3.82, -1.23, 2.34, 4.79, 3.37, 2.42, 2.66, 4.38, 7.36, 11.0, 15.02, 16.71, 18.37, 14.3, 9.3, 7.4, 8.82, 11.8, 16.09, 11.38, 11.7, 12.03, 14.03, 14.07, 14.79, 14.4, 16.79, 18.42, 15.53, 5.09, -0.0, -1.72, -1.44, -1.39, -0.0, -0.0, 2.13, 2.13, 4.24, 8.81, 9.2, 9.47, 9.47, 10.13, 10.13, 10.13, 9.84, 9.22, 8.86, 8.86, 8.86, 8.86, 9.21, 10.12, 10.06, 10.96, 11.69, 12.29, 12.98, 13.72, 13.96, 14.59, 14.68, 14.29, 14.29, 13.84, 13.8, 13.41, -0.0, -0.0, 7.59, 10.0, 8.18, 8.8, 6.95, 6.95, 7.27, 8.03, 9.6, 10.18, 10.18, 10.73, 10.28, 9.83, 7.27, 3.49, 3.53, 5.2, 8.85, 8.85, 8.53, 5.4, -0.0, -0.0, 6.94, 13.99, 18.65, 21.46, -0.0, -1.25, 1.73, 3.59, 3.69, 2.72, 2.96, 1.58, 3.68, 8.45, 15.01, 16.75, 16.82, 18.33, 4.6, 3.53, 10.43, 14.79, 12.33, 12.7, 13.26, 13.92, 14.79, 14.7, 14.28, 14.3, 15.11, 16.34, 15.91, 9.67, 2.72, -0.0, -0.0, -0.0, -0.0, -0.0, 1.83, 2.13, 4.1, 8.81, 9.2, 9.2, 9.47, 10.13, 10.13, 10.13, 9.84, 9.22, 9.21, 8.86, 8.86, 8.86, 9.5, 9.5, 10.09, 10.59, 11.53, 12.11, 12.39, 12.25, 13.0, 13.88, 14.03, 14.16, 13.8, 13.8, 13.77, 13.36, 13.41, 11.62, 9.55, 10.6, 9.75, 8.55, 7.27, 6.44, 6.14, 8.94, 9.33, 10.18, 10.73, 9.83, 9.83, 8.8, 4.4, 1.93, 2.49, 5.95, 5.0, 10.4, 10.0, 7.59, 4.2, 4.4, 7.59, 11.62, 13.32, 18.33, 13.61, 2.81, 2.13, 4.38, 7.36, 5.48, 6.8, 4.01, 7.6, 11.38, 17.25, 16.73, 17.17, 0.0, -3.96, 13.41, 9.92, 11.48, 13.29, 13.15, 14.13, 15.31, 15.96, 15.09, 12.94, 12.66, 14.75, 14.23, 14.39, 9.35, 4.54, -0.0, -0.0, -0.0, -0.0, -0.0, 2.13, 4.1, 4.1, 8.81, 8.81, 9.2, 9.47, 10.13, 10.13, 10.13, 10.13, 9.49, 9.5, 8.86, 8.59, 8.87, 9.21, 9.19, 9.77, 10.06, 10.59, 11.72, 12.14, 12.64, 12.45, 13.08, 14.35, 14.49, 14.6, 13.84, 13.86, 13.41, 13.37, 13.36, 12.02, 10.22, 10.73, 9.97, 6.98, 7.27, 7.27, 9.6, 10.08, 9.39, 9.39, 10.28, 9.13, 6.95, 4.2, 1.93, 2.49, 5.7, 7.27, 9.3, 9.67, 9.67, 8.93, 6.64, 9.33, 10.28, 11.4, 14.75, 13.02, 7.95, 7.44, 7.26, 9.42, 10.04, 12.3, 11.6, 13.59, 13.39, 13.91, 17.85, 0.0, -15.62, -18.78, 6.8, 10.17, 12.93, 13.84, 14.53, 15.25, 15.83, 16.69, 15.52, 13.81, 11.3, 10.27, 12.89, 10.12, 6.43, 5.46, 4.95, -0.0, -0.0, -0.0, 1.55, 3.82, 5.6, 5.6, 8.81, 8.81, 9.48, 9.48, 9.75, 10.13, 10.13, 10.13, 9.84, 9.5, 9.21, 8.87, 8.87, 9.21, 9.19, 9.48, 9.72, 10.23, 11.07, 11.75, 11.99, 12.33, 12.72, 13.48, 14.16, 14.29, 14.75, 14.74, 14.68, 14.29, 13.41, 12.96, 11.18, 11.18, 8.94, 8.91, 8.43, 8.93, 9.75, 9.83, 9.83, 8.94, 9.97, 6.32, 5.9, 4.4, 4.6, 4.6, 6.17, 8.23, 8.23, 8.58, 8.94, 9.2, 9.2, 8.82, 9.75, 10.62, 11.09, 10.55, 9.5, 8.59, 8.93, 9.6, 10.58, 10.14, 11.62, 11.62, 12.39, 15.59, 21.9, 0.0, -12.64, 14.86, 11.64, 11.73, 13.59, 14.93, 15.86, 15.79, 14.88, 14.95, 15.19, 13.2, 12.42, 8.93, 10.35, 5.8, 6.65, 6.2, 4.66, -0.0, -0.0, -0.0, 2.13, 3.82, 5.6, 5.6, 8.81, 9.09, 9.48, 9.48, 9.48, 9.84, 9.84, 10.13, 9.84, 9.5, 9.21, 8.87, 8.87, 9.17, 9.17, 9.46, 10.06, 10.59, 10.51, 11.22, 11.82, 12.53, 12.72, 13.15, 13.4, 14.3, 15.2, 15.2, 15.2, 15.2, 14.75, 13.41, 12.52, 11.13, 10.68, 10.28, 9.83, 10.28, 9.83, 9.83, 9.83, 8.8, 8.8, 7.27, 7.27, 6.17, 6.44, 6.17, 8.23, 8.82, 8.82, 8.82, 8.82, 8.82, 8.03, 8.03, 8.55, 8.93, 8.59, 8.59, 9.82, 10.09, 9.6, 10.18, 10.62, 9.74, 9.39, 10.28, 10.04, 13.02, 19.73, 19.67, 18.66, 18.84, 14.1, 13.26, 14.46, 15.79, 17.14, 16.3, 15.35, 15.7, 15.63, 10.91, 8.85, 8.01, 8.1, 6.43, 7.79, 7.1, 6.4, 2.13, -0.0, -0.0, 2.13, 4.81, 6.21, 6.21, 8.83, 9.09, 9.09, 9.48, 9.48, 9.48, 9.84, 10.13, 9.84, 9.84, 9.21, 9.21, 8.87, 9.17, 8.87, 10.12, 9.46, 9.72, 10.23, 11.08, 12.33, 13.86, 12.95, 12.72, 12.24, 13.59, 12.77, 13.55, 13.11, 13.75, 13.81, 12.96, 12.52, 12.07, 10.91, 10.18, 9.4, 9.38, 10.27, 10.41, 9.83, 10.08, 10.6, 10.0, 9.3, 7.59, 8.58, 8.23, 8.23, 8.82, 8.82, 8.82, 8.82, 8.03, 6.42, 7.27, 8.03, 8.59, 9.27, 9.46, 10.09, 10.68, 10.75, 9.54, 9.76, 9.39, 9.39, 10.18, 10.41, 14.11, 17.88, 19.44, 21.81, 22.66, 16.02, 15.25, 16.04, 16.49, 16.84, 17.05, 16.39, 16.54, 13.97, 10.19, 9.48, 8.38, 6.9, 7.19, 7.79, 7.79, 7.93, 4.24, 1.98, 1.91, 4.38, 7.36, 8.66, 8.66, 8.83, 8.83, 8.83, 9.48, 9.48, 9.48, 9.48, 10.13, 9.84, 10.13, 9.21, 9.21, 9.17, 9.17, 9.17, 8.87, 8.85, 8.24, 9.26, 10.41, 12.62, 13.59, 13.46, 11.66, 11.04, 11.41, 11.77, 12.15, 12.74, 12.71, 12.52, 12.14, 11.45, 11.71, 11.62, 9.86, 9.1, 9.2, 9.96, 10.12, 10.73, 10.69, 10.78, 10.38, 9.77, 9.97, 9.2, 9.2, 9.55, 9.13, 9.13, 9.55, 8.58, 6.98, 6.14, 6.95, 7.9, 8.15, 8.15, 10.09, 10.27, 10.32, 10.62, 10.73, 10.28, 10.28, 10.28, 11.18, 11.98, 12.45, 14.79, 17.82, 22.65, 25.59, 20.91, 16.51, 15.47, 14.39, 16.12, 16.94, 15.65, 16.15, 13.97, 10.47, 8.66, 7.44, 7.44, 6.43, 7.19, 6.94, 6.9, 6.0, 4.1, 2.13, 4.38, 7.82, 10.43, 10.43, 8.83, 8.83, 8.83, 9.21, 9.21, 9.21, 9.21, 9.49, 9.84, 10.13, 9.84, 9.21, 9.17, 9.17, 9.17, 9.48, 9.17, 8.54, 7.9, 9.89, 11.25, 12.54, 12.91, 12.54, 11.96, 11.9, 12.25, 11.75, 11.27, 11.55, 11.62, 11.51, 11.03, 11.4, 11.62, 10.38, 9.3, 9.1, 9.8, 10.78, 11.14, 11.18, 11.02, 11.64, 10.62, 11.21, 8.8, 9.55, 9.55, 10.08, 9.64, 8.23, 6.44, 5.75, 6.7, 6.42, 7.9, 7.9, 8.93, 10.0, 10.6, 11.02, 10.62, 11.18, 10.28, 10.73, 10.52, 10.04, 8.44, 9.13, 11.06, 14.91, 21.49, 24.99, 19.53, 16.32, 13.58, 13.18, 12.8, 13.59, 15.57, 15.18, 12.27, 9.48, 8.87, 6.9, 6.0, 6.65, 6.65, 7.54, 6.44, 6.9, 6.4, 6.0, 7.13, 9.22, 10.43, 10.43, 8.83, 8.83, 8.83, 8.83, 9.21, 9.49, 9.49, 9.49, 9.49, 10.13, 9.84, 9.5, 9.5, 9.17, 9.17, 9.8, 9.48, 9.48, 9.48, 10.74, 11.33, 11.6, 11.32, 11.32, 11.81, 12.38, 12.93, 12.3, 11.86, 12.04, 12.07, 11.62, 11.58, 11.62, 11.62, 11.18, 9.97, 9.67, 9.7, 10.21, 10.96, 11.18, 11.18, 11.84, 10.6, 9.6, 9.96, 9.64, 10.08, 10.08, 9.2, 6.44, 5.52, 5.75, 5.52, 6.98, 6.76, 7.51, 8.93, 9.2, 9.45, 10.32, 11.09, 11.18, 11.18, 11.06, 7.26, 3.32, 4.1, 4.66, 6.16, 13.09, 19.99, 23.95, 7.35, 8.85, 10.97, 11.45, 11.32, 12.11, 15.49, 14.79, 11.38, 7.82, 6.4, 6.0, 4.24, 6.4, 7.32, 6.7, 6.21, 6.0, 7.93, 8.94, 8.94, 10.12, 10.43, 10.43, 8.83, 8.83, 8.83, 8.83, 9.49, 9.49, 9.49, 9.49, 9.49, 9.5, 9.84, 9.5, 9.5, 9.5, 9.17, 9.48, 9.8, 10.11, 10.44, 11.68, 11.88, 11.34, 10.51, 11.17, 11.56, 12.11, 12.52, 13.0, 12.66, 12.33, 12.05, 11.6, 11.62, 11.62, 11.62, 11.53, 10.79, 9.97, 9.67, 10.09, 10.88, 11.55, 11.62, 11.55, 11.28, 10.27, 10.52, 9.21, 9.11, 9.2, 7.27, 6.44, 5.52, 6.71, 5.52, 5.52, 5.0, 7.54, 9.17, 7.13, 8.4, 9.89, 11.51, 11.51, 10.6, 6.98, 4.08, 2.42, 2.82, 4.93, 7.69, 12.64, 26.37, 13.86, 0.0, 3.7, 5.08, 6.17, 6.69, 14.79, 13.44, 11.06, 7.0, 5.81, 5.48, 4.38, 5.15, 5.31, 7.82, 9.49, 6.67, 7.44, 8.94, 8.94, 10.12, 11.17, 11.17, 11.17, 8.57, 8.57, 8.85, 8.85, 9.49, 9.49, 9.22, 9.22, 9.22, 9.5, 9.5, 9.5, 9.5, 9.8, 9.17, 9.48, 10.12, 10.44, 10.73, 10.99, 11.52, 11.34, 10.83, 10.94, 11.46, 11.85, 12.25, 12.92, 12.72, 12.49, 12.18, 11.89, 11.53, 11.15, 11.06, 11.02, 10.91, 10.46, 10.09, 10.88, 11.28, 11.55, 11.62, 11.53, 11.53, 10.75, 12.27, 10.96, 10.41, 10.0, 8.22, 6.71, 6.44, 6.44, 4.6, 4.6, 5.29, 6.21, 9.17, 8.22, 6.87, 8.4, 10.6, 9.67, 7.9, 5.4, 3.82, 4.93, 5.0, 6.2, 10.0, 19.09, 25.93, 26.72, 14.79, 12.72, 13.41, 11.6, 14.75, 12.65, 9.8, 7.93, 3.58, 2.81, 2.89, 2.89, 5.48, 5.48, 7.82, 8.28, 8.31, 8.05, 8.66, 10.82, 10.12, 11.17, 10.82, 10.82, 8.85, 8.85, 8.85, 8.85, 8.85, 9.22, 9.22, 9.22, 9.5, 9.5, 9.21, 9.5, 9.5, 9.8, 9.8, 10.12, 10.12, 10.11, 10.39, 10.65, 10.94, 11.44, 11.34, 11.47, 11.6, 11.46, 12.13, 12.4, 12.65, 12.87, 12.44, 12.58, 12.3, 11.42, 10.98, 10.52, 10.89, 10.6, 10.38, 11.13, 11.4, 11.57, 11.18, 11.18, 11.09, 10.65, 11.62, 10.68, 9.64, 9.42, 9.8, 10.73, 7.59, 5.95, 4.6, 4.6, 5.7, 5.46, 8.22, 8.85, 8.73, 8.15, 8.8, 8.38, 5.77, 4.24, 3.82, 4.9, 5.4, 9.97, 13.41, 14.84, 21.9, 27.18, 25.73, 18.63, 16.6, 14.7, 13.57, 11.16, 9.8, 6.2, -0.0, -0.0, -0.0, -0.0, 2.89, 2.89, 5.64, 8.05, 10.61, 9.22, 10.12, 10.43, 10.47, 10.82, 10.82, 10.82, 8.46, 8.46, 8.85, 8.85, 8.85, 9.22, 9.22, 9.5, 9.21, 9.21, 9.21, 9.5, 9.5, 9.8, 9.8, 9.8, 9.8, 10.11, 10.39, 10.39, 10.94, 11.44, 11.44, 11.61, 11.87, 11.6, 11.85, 11.99, 12.14, 12.14, 12.37, 12.53, 12.14, 11.71, 11.42, 10.84, 10.37, 10.32, 10.75, 10.89, 11.02, 11.57, 11.18, 11.18, 10.73, 10.73, 11.62, 10.28, 9.79, 9.64, 10.91, 10.84, 11.2, 6.7, 2.71, 4.8, 7.27, 6.95, 5.7, 8.22, 10.8, 10.8, 8.15, 6.95, 6.2, 4.24, 3.96, 4.39, 8.3, 10.41, 11.95, 14.3, 16.99, 23.93, 25.87, 23.59, 19.59, 16.84, 11.4, 10.4, 9.48, -0.0, -8.43, -6.2, -2.35, -0.0, 2.5, 2.89, 5.48, 5.64, 8.74, 10.59, 10.75, 12.52, 11.09, 12.27, 11.88, 11.88, 8.2, 8.2, 8.58, 8.85, 8.85, 9.22, 9.5, 9.5, 9.21, 8.86, 9.16, 9.5, 9.5, 9.8, 9.8, 9.8, 9.8, 10.11, 10.39, 10.39, 10.94, 10.94, 11.07, 11.34, 11.61, 11.33, 11.6, 11.85, 11.99, 12.14, 12.37, 11.95, 11.95, 11.52, 11.66, 11.23, 11.23, 10.8, 10.37, 10.08, 11.06, 11.59, 11.58, 10.73, 10.28, 11.18, 11.18, 10.28, 9.83, 9.83, 10.73, 11.18, 10.14, 7.27, 5.0, 4.8, 7.59, 5.7, 5.21, 5.7, 11.45, 10.27, 10.38, 7.59, 6.44, 4.08, 4.75, 9.17, 10.79, 11.92, 12.86, 13.41, 14.68, 16.99, 19.08, 24.01, 22.83, 18.66, 9.83, 9.83, 11.62, -9.17, -7.93, -7.78, -4.38, -0.0, 2.57, 4.95, 5.64, 5.48, 7.82, 11.7, 13.61, 13.23, 13.03, 13.28, 13.28, 13.28, 8.2, 8.2, 8.58, 8.86, 8.86, 8.86, 9.21, 9.21, 8.86, 8.87, 9.16, 9.16, 9.5, 9.8, 9.8, 9.8, 9.8, 9.78, 10.06, 10.06, 10.59, 10.59, 10.87, 11.16, 11.44, 11.72, 11.6, 11.6, 11.44, 11.67, 11.8, 11.38, 11.58, 11.52, 11.52, 11.28, 11.23, 10.8, 10.96, 10.52, 10.93, 11.49, 11.14, 10.28, 9.83, 10.73, 10.28, 10.28, 9.83, 10.28, 11.18, 10.73, 10.73, 7.27, 3.98, 5.2, 7.9, 5.95, 3.82, 4.6, 9.3, 10.75, 10.75, 10.04, 5.77, 5.6, 10.3, 11.2, 11.95, 12.96, 14.3, 14.3, 13.34, 13.79, 15.2, 19.67, 23.69, 19.13, 13.86, 10.28, 11.18, 8.22, 3.25, -0.0, -0.0, -0.0, 1.83, 4.95, 5.81, 8.85, 8.85, 12.52, 12.92, 15.19, 15.36, 14.53, 14.11, 14.11, 8.49, 8.49, 8.86, 8.86, 8.86, 8.86, 9.21, 9.21, 8.86, 8.87, 8.87, 9.16, 9.16, 9.8, 9.8, 9.8, 9.48, 9.77, 10.06, 10.06, 10.35, 10.23, 10.51, 11.16, 11.16, 10.88, 11.17, 11.46, 11.2, 11.44, 11.25, 11.38, 11.38, 11.58, 11.15, 11.09, 11.28, 10.84, 10.8, 10.52, 10.93, 11.05, 11.02, 11.98, 12.07, 10.28, 9.39, 9.79, 10.08, 10.08, 10.84, 10.58, 10.28, 8.23, 6.44, 6.44, 8.53, 6.45, 4.8, 6.2, 10.6, 11.02, 11.45, 8.85, 6.21, 9.17, 9.8, 10.41, 11.46, 11.51, 13.75, 14.68, 13.8, 12.85, 12.56, 15.83, 20.22, 19.16, 18.78, 16.99, 12.07, 10.14, 11.72, 9.66, 7.19, 1.9, 1.9, 7.59, 10.75, 12.16, 13.19, 14.11, 15.34, 15.27, 16.12, 15.77, 16.31, 16.31, 8.22, 8.22, 8.22, 8.86, 8.86, 8.86, 8.86, 9.16, 8.87, 8.87, 8.87, 8.87, 9.46, 9.8, 9.8, 9.5, 9.77, 9.77, 10.06, 9.72, 10.01, 10.01, 10.3, 10.59, 10.59, 10.88, 11.17, 11.17, 11.06, 11.33, 11.44, 11.25, 11.45, 10.96, 10.96, 11.15, 11.09, 10.67, 10.84, 10.37, 10.49, 10.45, 10.84, 10.56, 11.12, 11.62, 11.18, 10.23, 9.97, 10.6, 10.96, 10.14, 9.55, 8.03, 7.59, 7.59, 5.9, 6.71, 8.22, 9.3, 10.18, 10.96, 10.35, 8.22, 9.42, 9.77, 9.48, 10.12, 8.73, 9.83, 9.6, 13.31, 16.09, 16.99, 15.69, 16.92, 17.86, 16.54, 18.27, 20.12, 21.01, 12.52, 11.46, 11.5, 9.9, 10.86, 8.31, 12.27, 13.7, 14.31, 14.31, 15.65, 15.43, 15.34, 15.87, 17.2, 17.2, 17.2, 8.22, 8.22, 8.22, 8.59, 8.59, 8.87, 8.87, 8.87, 8.87, 8.87, 8.87, 8.87, 9.17, 9.17, 9.5, 9.19, 9.48, 9.77, 10.06, 9.72, 10.01, 10.3, 10.3, 10.59, 10.59, 10.88, 10.68, 10.61, 11.06, 11.33, 11.33, 11.44, 11.25, 11.25, 11.03, 10.54, 10.54, 10.67, 10.24, 10.37, 10.37, 10.32, 10.45, 10.35, 10.28, 11.71, 12.0, 10.68, 10.28, 11.18, 10.65, 9.97, 9.63, 8.93, 8.38, 7.59, 8.23, 8.22, 8.93, 9.3, 10.84, 10.4, 10.35, 9.97, 11.21, 10.79, 10.4, 9.17, 8.53, 9.33, 8.49, 11.18, 14.65, 21.79, 20.96, 17.48, 15.02, 13.39, 15.81, 19.5, 21.9, 19.22, 12.68, 12.72, 12.81, 12.79, 12.79, 14.03, 14.3, 14.75, 14.75, 14.75, 15.2, 15.65, 15.65, 16.09, 16.99, 16.99, 8.22, 8.22, 8.22, 8.59, 8.87, 8.87, 8.87, 8.87, 8.87, 8.87, 8.59, 8.87, 9.17, 8.87, 9.19, 9.48, 9.48, 9.77, 10.06, 9.72, 10.01, 10.3, 10.3, 10.59, 10.59, 10.68, 10.31, 10.24, 11.2, 10.4, 11.06, 11.06, 11.44, 11.03, 11.25, 10.83, 10.54, 10.46, 10.24, 10.18, 9.75, 10.32, 10.25, 10.18, 10.18, 10.6, 10.84, 10.69, 10.73, 11.13, 10.56, 10.08, 10.18, 10.05, 9.2, 8.82, 8.94, 10.0, 9.6, 9.2, 10.8, 10.4, 10.79, 10.84, 11.4, 10.84, 10.28, 11.62, 12.52, 12.07, 10.14, 8.82, 12.39, 18.05, 28.61, 19.67, 13.07, 10.0, 13.02, 17.67, 18.33, 17.72, 15.34, 13.65, 14.15, 14.58, 15.25, 14.66, 14.3, 13.86, 13.86, 14.3, 14.75, 15.2, 15.2, 15.65, 16.09, 16.09, 8.22, 8.22, 8.22, 8.22, 8.87, 8.87, 8.87, 8.87, 8.87, 8.59, 8.87, 8.87, 8.87, 8.87, 9.19, 9.48, 9.48, 9.17, 9.72, 9.72, 10.01, 9.66, 9.94, 10.23, 10.23, 10.31, 10.31, 10.61, 10.04, 11.2, 9.97, 10.52, 10.67, 10.67, 10.92, 10.75, 10.75, 10.54, 10.46, 10.05, 9.75, 10.1, 10.1, 10.25, 10.6, 10.18, 10.45, 10.25, 10.73, 10.73, 10.28, 10.23, 11.11, 10.41, 9.89, 10.18, 10.52, 9.96, 9.2, 9.6, 8.58, 9.96, 10.4, 10.41, 10.84, 10.84, 10.73, 10.28, 11.62, 12.96, 11.61, 10.0, 11.03, 16.09, 28.16, 23.69, 14.75, 11.62, 13.41, 14.26, 15.95, 16.73, 16.29, 16.29, 16.31, 16.44, 16.06, 15.2, 14.3, 13.23, 12.96, 13.41, 13.86, 14.3, 14.3, 15.2, 14.75, 14.75, 7.83, 7.83, 8.22, 8.22, 8.87, 8.87, 8.87, 8.87, 8.59, 8.87, 8.87, 8.87, 8.87, 8.87, 8.87, 9.17, 9.17, 9.17, 9.46, 9.72, 10.01, 9.66, 9.94, 10.23, 10.23, 10.31, 10.31, 10.31, 10.31, 10.24, 10.13, 10.13, 10.13, 10.52, 10.67, 10.52, 10.52, 10.75, 10.24, 10.05, 9.96, 9.68, 10.1, 10.01, 10.25, 9.83, 10.02, 10.02, 10.6, 10.69, 10.73, 11.18, 10.73, 10.2, 10.18, 10.18, 10.14, 9.64, 9.2, 9.6, 10.41, 9.3, 9.3, 10.0, 9.2, 10.41, 10.41, 10.73, 11.62, 12.52, 11.87, 11.62, 12.52, 14.66, 22.99, 25.9, 18.66, 15.12, 13.23, 13.96, 16.01, 16.52, 16.54, 16.99, 16.54, 16.09, 16.09, 15.2, 13.96, 12.89, 12.52, 12.14, 12.27, 13.41, 13.41, 14.75, 10.75, 10.75, 7.57, 7.57, 7.96, 7.96, 8.23, 8.59, 8.59, 8.59, 8.87, 8.87, 8.87, 8.87, 8.87, 8.58, 8.87, 9.17, 9.17, 9.46, 9.46, 9.46, 9.42, 9.66, 9.94, 9.94, 10.23, 10.01, 10.31, 10.31, 10.31, 10.61, 10.52, 10.13, 10.13, 10.4, 10.4, 10.4, 10.4, 10.4, 10.0, 10.24, 9.72, 9.55, 9.45, 10.01, 9.6, 9.83, 9.4, 10.02, 10.02, 10.58, 10.69, 11.18, 10.73, 10.28, 10.73, 10.28, 9.7, 9.13, 9.13, 8.82, 7.87, 9.67, 8.93, 9.3, 10.0, 10.84, 10.41, 10.84, 10.96, 12.07, 12.35, 13.86, 14.3, 15.43, 19.29, 21.46, 20.07, 17.08, 15.94, 17.5, 17.41, 16.96, 15.54, 15.08, 15.53, 14.72, 14.72, 14.51, 13.01, 12.52, 11.2, 11.2, 11.87, 12.35, 12.71, 9.17, 5.48, 5.48, 7.57, 7.57, 7.57, 7.96, 8.23, 8.23, 8.59, 8.87, 8.87, 8.87, 8.87, 8.87, 8.87, 8.87, 8.87, 8.87, 9.17, 9.46, 9.13, 9.13, 9.42, 9.42, 9.71, 9.71, 10.01, 10.01, 10.31, 10.31, 10.31, 10.61, 10.79, 10.67, 10.27, 9.74, 10.0, 9.74, 9.74, 9.74, 10.0, 10.0, 9.72, 9.6, 9.45, 9.18, 9.18, 9.18, 9.4, 9.83, 9.83, 10.41, 10.58, 10.68, 10.23, 10.73, 10.28, 9.83, 9.7, 9.33, 9.13, 9.55, 9.55, 7.67, 10.18, 9.75, 9.55, 10.96, 10.08, 10.58, 11.18, 11.18, 12.96, 12.96, 15.65, 16.99, 19.22, 17.43, 17.28, 19.15, 20.75, 19.06, 19.2, 16.09, 12.93, 12.75, 13.19, 12.75, 12.71, 12.14, 12.04, 12.83, 10.55, 10.79, 11.92, 12.79, 11.2, 9.17, 7.13, 7.13, 7.57, 7.57, 7.57, 7.57, 8.23, 8.23, 8.59, 8.87, 8.87, 8.87, 8.87, 8.87, 8.87, 8.87, 8.87, 8.87, 8.87, 9.13, 9.13, 9.13, 9.42, 9.08, 9.37, 9.37, 9.37, 9.66, 9.66, 9.95, 9.95, 9.95, 10.24, 10.4, 10.4, 10.27, 9.74, 9.74, 9.58, 9.58, 9.58, 9.86, 9.47, 9.32, 9.05, 10.38, 8.67, 9.18, 9.6, 9.6, 9.6, 10.18, 10.41, 10.56, 10.08, 10.66, 9.76, 9.83, 9.7, 8.91, 9.33, 9.33, 9.13, 8.72, 9.75, 9.33, 10.41, 10.96, 9.83, 10.28, 10.73, 10.73, 11.62, 12.96, 15.43, 18.41, 20.83, 17.84, 13.67, 16.82, 22.21, 22.33, 18.78, 15.62, 13.41, 12.07, 12.07, 12.96, 13.33, 12.46, 12.96, 12.14, 11.33, 11.99, 12.89, 12.72, 10.79, 9.17, 9.48, 9.48, 6.92, 6.92, 7.32, 7.59, 7.59, 7.96, 8.24, 8.58, 8.58, 8.58, 8.58, 8.87, 8.87, 8.87, 8.87, 8.87, 8.87, 8.85, 8.85, 8.85, 9.08, 9.08, 9.37, 9.37, 9.37, 9.66, 9.66, 9.66, 9.95, 9.95, 9.95, 9.95, 10.4, 10.02, 10.02, 9.74, 9.74, 9.58, 9.58, 9.2, 9.02, 9.32, 8.55, 10.16, 9.08, 9.18, 9.34, 9.34, 9.34, 9.9, 9.66, 9.92, 9.85, 10.04, 9.76, 9.39, 9.29, 9.03, 9.03, 9.33, 9.33, 8.72, 10.18, 9.11, 9.83, 10.73, 10.73, 10.28, 10.73, 11.18, 11.18, 12.96, 14.47, 16.91, 22.9, 22.41, 14.47, 13.13, 17.97, 19.27, 16.78, 15.2, 15.17, 14.7, 13.81, 13.36, 13.77, 13.86, 13.28, 12.25, 12.45, 12.85, 13.01, 12.72, 11.16, 9.17, 11.99, 9.48, 6.92, 6.92, 7.59, 7.59, 7.59, 7.59, 8.24, 8.24, 8.58, 8.58, 8.87, 8.87, 8.87, 8.87, 8.87, 8.87, 8.85, 8.85, 8.85, 8.82, 8.82, 8.82, 9.12, 9.37, 9.37, 9.37, 9.66, 9.66, 9.66, 9.95, 9.95, 9.95, 9.95, 10.13, 9.86, 9.86, 9.48, 9.74, 9.58, 9.2, 9.02, 8.45, 8.55, 8.3, 10.16, 8.93, 9.45, 9.27, 8.67, 9.03, 8.95, 8.8, 8.58, 8.91, 9.32, 9.39, 8.85, 8.85, 9.29, 9.29, 9.7, 9.26, 7.45, 9.83, 10.28, 10.28, 9.83, 10.28, 10.73, 11.18, 11.18, 11.62, 13.86, 15.43, 17.59, 22.74, 22.53, 15.71, 12.27, 12.58, 12.72, 13.36, 13.41, 13.28, 12.63, 13.25, 13.57, 14.13, 13.57, 13.27, 13.37, 13.59, 13.44, 13.15, 11.99, 11.16, 11.6, 11.99, 7.19, 7.19, 7.19, 7.59, 7.59, 7.59, 7.87, 8.24, 8.24, 8.24, 8.87, 8.87, 8.87, 8.87, 8.87, 8.85, 8.85, 8.85, 8.53, 8.82, 8.82, 8.82, 8.82, 9.12, 9.37, 9.37, 9.37, 9.66, 9.66, 9.86, 10.13, 9.58, 9.58, 9.58, 9.58, 9.86, 9.86, 9.48, 9.58, 9.2, 9.02, 8.45, 8.23, 8.23, 8.18, 10.0, 9.2, 9.03, 8.43, 8.43, 8.4, 8.21, 8.58, 8.67, 8.94, 8.94, 8.43, 8.87, 8.87, 9.29, 9.29, 9.26, 10.73, 9.83, 9.83, 10.28, 9.83, 10.73, 10.28, 11.18, 11.46, 11.62, 12.96, 13.86, 15.34, 17.11, 24.74, 24.39, 13.72, 12.79, 14.75, 14.75, 13.59, 13.07, 12.89, 13.25, 13.44, 14.13, 14.23, 14.07, 14.25, 14.23, 13.75, 13.72, 13.01, 12.58, 10.79, 10.79, 6.94, 6.94, 6.94, 7.33, 7.33, 7.33, 7.6, 7.6, 7.96, 8.24, 8.56, 8.56, 8.56, 8.56, 8.85, 8.85, 8.85, 8.85, 8.53, 8.82, 8.82, 8.82, 8.82, 9.12, 9.37, 9.37, 9.37, 9.37, 9.66, 9.86, 9.86, 9.5, 9.58, 9.58, 9.58, 9.58, 9.58, 9.67, 9.3, 9.3, 9.02, 9.02, 8.45, 8.45, 8.82, 9.32, 9.34, 8.95, 8.4, 8.4, 8.4, 8.3, 8.48, 8.89, 8.49, 8.49, 8.0, 8.43, 8.87, 8.87, 9.29, 8.82, 8.38, 9.83, 9.83, 9.54, 10.08, 10.28, 10.08, 10.84, 11.46, 11.18, 12.96, 11.87, 13.19, 16.09, 21.34, 29.08, 25.52, 17.59, 16.22, 15.99, 16.84, 14.93, 13.01, 13.5, 13.59, 14.03, 14.68, 14.25, 14.3, 14.3, 13.86, 13.41, 10.79, 3.14, 3.14, 3.14, 6.94, 6.94, 6.94, 6.94, 7.33, 7.6, 7.6, 7.6, 7.6, 8.24, 8.24, 8.56, 8.56, 8.85, 8.85, 8.85, 8.85, 8.85, 8.53, 8.82, 8.82, 8.82, 8.82, 9.12, 9.12, 9.37, 9.71, 9.71, 9.37, 9.37, 9.66, 9.66, 9.3, 9.3, 9.58, 9.58, 9.37, 9.37, 9.67, 9.3, 9.09, 9.02, 8.82, 8.82, 8.82, 9.7, 9.74, 9.18, 8.91, 8.4, 8.4, 8.63, 8.8, 8.9, 8.49, 8.49, 8.05, 8.05, 8.49, 8.94, 8.94, 8.94, 8.94, 10.73, 9.83, 9.54, 10.08, 10.52, 9.55, 10.0, 10.6, 10.73, 11.51, 11.92, 11.64, 12.89, 17.81, 23.23, 28.52, 23.5, 19.89, 20.22, 17.78, 17.08, 14.15, 13.55, 14.07, 14.23, 14.3, 14.3, 13.86, 13.86, 13.86, 13.01, 3.14, -0.0, -0.0, -0.0, 6.94, 6.94, 6.94, 7.22, 7.6, 7.6, 7.6, 7.6, 7.6, 7.6, 8.24, 8.24, 8.56, 8.85, 8.85, 8.85, 8.85, 8.53, 8.53, 8.82, 8.82, 8.82, 8.82, 9.46, 9.46, 9.71, 9.71, 9.71, 9.71, 9.37, 9.37, 9.66, 9.3, 9.3, 9.3, 9.58, 9.37, 9.37, 9.67, 9.09, 9.09, 9.02, 9.02, 9.02, 9.14, 9.45, 9.86, 9.34, 9.18, 9.4, 9.11, 9.11, 8.82, 8.9, 8.94, 8.49, 8.49, 8.05, 8.05, 8.49, 8.49, 8.94, 8.94, 8.49, 10.73, 9.54, 9.64, 8.91, 9.2, 10.18, 11.62, 10.28, 10.75, 11.5, 11.99, 13.57, 15.83, 18.27, 22.03, 23.27, 23.58, 23.99, 22.97, 17.43, 16.3, 14.75, 14.47, 14.7, 14.75, 13.41, 14.3, 12.39, 12.96, 4.1, -0.0, -1.55, -1.55, -1.55, 7.22, 7.22, 7.22, 7.22, 7.22, 7.33, 7.33, 7.33, 7.33, 7.61, 7.95, 7.95, 7.95, 8.85, 8.85, 8.85, 8.53, 8.53, 8.82, 8.82, 8.82, 8.82, 8.82, 8.82, 9.46, 9.71, 9.71, 9.71, 9.71, 9.37, 9.37, 9.37, 9.3, 9.3, 9.3, 9.58, 9.37, 9.37, 9.46, 9.46, 9.09, 9.4, 9.4, 9.32, 9.32, 9.6, 9.6, 9.45, 9.68, 9.18, 9.4, 9.15, 9.26, 8.82, 8.9, 8.49, 8.49, 8.05, 8.05, 8.05, 8.49, 8.49, 8.94, 9.39, 8.94, 10.28, 9.83, 8.94, 9.83, 10.08, 10.28, 10.62, 11.51, 12.14, 13.01, 13.77, 15.2, 16.09, 17.67, 17.74, 22.12, 26.96, 26.09, 21.3, 19.18, 16.1, 16.41, 16.09, 14.3, 13.79, 13.01, 11.84, 3.96, -0.0, -1.38, -1.5, -1.5, -1.5, 6.96, 6.96, 6.96, 6.96, 6.96, 6.96, 7.33, 7.33, 7.61, 7.61, 7.61, 7.95, 7.95, 8.24, 8.53, 8.53, 8.53, 8.53, 8.82, 8.82, 8.82, 8.82, 8.82, 8.82, 9.12, 9.71, 9.71, 9.71, 9.71, 9.37, 9.37, 9.37, 9.3, 9.3, 9.3, 9.37, 9.37, 9.37, 9.46, 9.09, 9.09, 9.4, 9.19, 9.52, 9.32, 9.6, 9.6, 9.45, 9.45, 9.6, 9.4, 8.97, 9.11, 8.82, 8.46, 8.49, 8.49, 8.05, 8.05, 8.05, 8.05, 8.49, 8.49, 8.94, 8.94, 9.83, 9.39, 9.39, 9.83, 9.83, 10.14, 11.06, 11.51, 12.42, 12.86, 13.41, 14.3, 15.2, 15.87, 15.54, 17.05, 23.97, 27.43, 24.41, 21.58, 17.84, 15.65, 14.72, 13.7, 11.85, 11.62, 8.85, -1.98, -3.32, -2.93, -2.62, -2.62, -2.62, 6.96, 6.96, 6.96, 6.96, 6.96, 6.96, 7.61, 7.61, 7.61, 7.61, 7.61, 7.61, 7.95, 8.24, 8.24, 8.53, 8.53, 8.82, 8.82, 8.82, 8.82, 8.82, 8.82, 8.82, 9.12, 9.71, 9.71, 9.71, 9.37, 9.37, 9.37, 9.02, 9.3, 9.08, 9.08, 9.37, 9.37, 9.3, 9.09, 9.09, 9.4, 9.19, 9.19, 9.52, 9.52, 9.6, 9.6, 9.45, 9.45, 9.6, 9.18, 9.4, 9.11, 8.67, 8.9, 8.46, 8.49, 8.05, 8.05, 8.05, 7.6, 8.05, 8.49, 8.94, 8.94, 10.28, 9.83, 9.39, 9.83, 9.83, 10.28, 10.73, 11.53, 11.98, 12.44, 13.41, 13.86, 14.3, 14.47, 14.99, 15.54, 19.34, 24.58, 24.68, 23.99, 18.55, 15.2, 12.18, 11.38, 10.19, 12.52, -1.98, -3.19, -3.07, -2.71, -2.6, -2.6, -2.6, 6.96, 6.96, 6.96, 6.7, 7.24, 7.24, 7.61, 7.61, 7.61, 7.61, 7.61, 7.61, 7.61, 8.24, 8.24, 8.24, 8.82, 8.82, 8.82, 8.82, 8.82, 8.82, 8.82, 9.12, 9.12, 9.12, 9.37, 9.37, 9.37, 9.37, 9.37, 9.3, 9.08, 9.08, 9.37, 9.37, 9.01, 9.09, 9.09, 9.4, 9.4, 9.4, 9.52, 9.52, 9.52, 9.84, 9.6, 9.86, 9.45, 9.6, 9.18, 9.4, 9.11, 8.67, 8.9, 8.46, 8.46, 8.05, 8.05, 8.05, 8.05, 7.6, 8.05, 8.49, 8.49, 8.94, 8.94, 9.39, 9.39, 9.83, 9.83, 10.28, 11.18, 11.98, 12.44, 12.96, 13.41, 13.41, 13.96, 14.47, 15.34, 16.05, 17.71, 21.23, 24.53, 19.43, 10.18, 7.27, 8.22, 5.6, -5.4, -4.58, -2.95, -3.61, -2.39, -2.28, -2.28, -2.28, 6.96, 6.96, 6.7, 6.97, 6.97, 6.97, 6.97, 7.61, 7.61, 7.61, 7.61, 7.61, 7.61, 8.24, 8.24, 8.24, 8.82, 8.82, 8.82, 8.82, 8.82, 8.82, 8.82, 9.12, 9.12, 9.12, 9.37, 9.37, 9.37, 9.37, 9.3, 9.08, 9.08, 8.73, 9.01, 9.01, 9.09, 9.09, 9.4, 9.4, 9.4, 9.7, 9.7, 9.52, 9.52, 9.84, 9.45, 9.74, 9.34, 9.34, 9.6, 9.33, 8.91, 8.82, 8.82, 8.46, 8.46, 8.01, 8.05, 8.05, 8.05, 7.6, 7.6, 8.05, 7.97, 8.94, 8.94, 9.39, 9.39, 9.83, 9.83, 9.83, 9.76, 11.09, 11.98, 12.42, 12.96, 12.96, 13.75, 14.66, 14.4, 14.47, 14.53, 17.05, 25.53, 17.64, 12.79, -7.59, -3.39, -5.0, -3.68, -4.32, -3.53, -3.77, -2.49, -2.39, -2.39, -2.39, 6.96, 6.7, 6.97, 6.97, 6.97, 6.97, 6.97, 7.33, 7.33, 7.33, 7.33, 7.61, 7.9, 8.24, 8.24, 8.24, 8.53, 8.82, 8.82, 8.82, 8.82, 8.82, 9.12, 9.12, 9.12, 9.12, 9.37, 9.37, 9.37, 9.3, 9.3, 9.08, 8.73, 9.01, 9.01, 9.01, 9.09, 9.09, 9.4, 9.4, 9.4, 9.7, 9.7, 9.7, 9.7, 10.0, 9.45, 9.45, 9.74, 9.34, 9.6, 9.33, 9.33, 8.67, 8.82, 8.38, 8.46, 8.02, 8.01, 8.01, 8.01, 7.56, 7.55, 7.54, 7.54, 7.08, 9.39, 9.39, 9.39, 9.83, 10.28, 10.28, 10.28, 9.54, 10.84, 11.28, 12.42, 12.96, 13.41, 13.86, 14.22, 14.22, 14.03, 16.76, 26.9, 18.79, -0.0, -5.99, -5.69, -5.69, -4.15, -3.21, -4.08, -3.92, -3.77, -2.39, -2.39, -2.39, 6.97, 6.97, 6.97, 6.97, 6.97, 6.97, 6.97, 7.33, 7.33, 7.33, 7.33, 7.9, 7.9, 7.9, 8.24, 8.24, 8.53, 8.53, 8.82, 8.82, 8.82, 9.12, 9.12, 9.12, 9.12, 9.12, 9.37, 9.02, 9.3, 9.3, 9.08, 9.01, 9.01, 9.01, 9.01, 9.09, 9.09, 9.09, 9.4, 9.4, 9.4, 9.7, 9.7, 9.7, 9.7, 10.0, 9.6, 9.86, 9.74, 9.6, 9.6, 9.4, 9.33, 8.67, 8.82, 8.38, 8.46, 8.46, 8.02, 8.01, 7.57, 7.56, 7.55, 7.55, 7.54, 7.52, 9.26, 9.26, 9.83, 9.39, 9.83, 10.28, 10.28, 10.18, 9.63, 10.46, 11.71, 12.42, 12.96, 12.96, 13.41, 13.86, 14.75, 27.27, 27.1, 8.8, -7.4, -6.3, -6.45, -5.7, -5.43, -4.54, -3.68, -4.58, -3.77, -3.61, -3.61, -3.61, 6.97, 6.97, 6.97, 6.97, 6.97, 6.97, 6.97, 7.33, 7.33, 7.61, 7.61, 7.9, 7.9, 7.9, 8.24, 8.24, 8.53, 8.53, 8.82, 8.82, 9.12, 9.12, 9.12, 9.12, 8.78, 8.78, 8.78, 9.08, 9.08, 9.08, 9.01, 9.01, 9.01, 9.01, 9.09, 9.09, 9.09, 9.09, 9.4, 9.4, 9.4, 9.7, 9.7, 9.7, 9.7, 10.0, 10.0, 9.6, 9.86, 9.6, 9.6, 9.4, 9.15, 8.71, 8.84, 8.39, 8.38, 8.46, 8.02, 8.01, 7.57, 7.56, 7.56, 7.55, 7.55, 7.37, 7.21, 7.5, 10.28, 10.28, 10.28, 10.2, 10.28, 10.28, 10.28, 10.62, 11.51, 11.95, 12.42, 12.42, 12.86, 13.86, 18.33, 26.11, 23.0, -5.94, -7.38, -6.87, -6.7, -6.45, -6.2, -5.43, -5.0, -4.4, -3.77, -3.61, -3.61, -3.61, 6.97, 6.97, 6.97, 6.97, 6.97, 6.97, 6.97, 7.61, 7.61, 7.61, 7.61, 7.9, 7.9, 7.9, 7.9, 8.24, 8.53, 8.53, 8.53, 8.82, 9.12, 9.12, 9.12, 8.78, 8.78, 8.78, 9.08, 9.08, 8.73, 8.73, 9.01, 9.01, 9.01, 9.3, 9.09, 9.09, 9.09, 9.4, 9.4, 9.4, 9.4, 9.7, 9.7, 9.86, 9.86, 10.13, 10.13, 9.6, 9.86, 10.1, 9.6, 9.83, 9.15, 9.15, 8.71, 8.39, 8.39, 8.38, 7.94, 7.94, 7.92, 7.48, 7.45, 7.42, 7.85, 7.85, 7.81, 7.63, 10.14, 10.73, 10.62, 10.73, 10.73, 10.28, 9.76, 9.74, 10.73, 11.51, 12.04, 12.14, 12.04, 13.28, 18.7, 23.95, -0.0, -10.39, -7.34, -5.69, -5.95, -6.86, -6.71, -6.16, -5.77, -5.0, -3.92, -3.87, -3.87, -3.87, 6.97, 6.97, 6.97, 6.97, 6.97, 6.97, 7.26, 7.61, 7.61, 7.61, 7.61, 7.61, 7.61, 7.9, 7.9, 8.24, 8.22, 8.22, 8.22, 8.5, 8.78, 8.78, 8.78, 8.78, 8.78, 8.78, 8.73, 8.73, 8.73, 9.01, 9.01, 9.01, 9.3, 9.3, 9.09, 9.09, 9.4, 9.4, 9.4, 9.4, 9.4, 9.7, 9.32, 9.47, 9.47, 9.72, 9.72, 9.72, 9.86, 10.1, 9.68, 9.89, 9.03, 9.18, 8.71, 8.71, 8.39, 8.39, 7.94, 7.94, 7.94, 7.92, 7.89, 7.89, 7.85, 7.85, 7.95, 7.81, 7.81, 10.52, 10.58, 10.73, 10.73, 10.28, 10.28, 10.28, 10.28, 11.06, 11.18, 11.61, 11.87, 14.16, 17.88, 21.01, -0.0, -12.2, -7.82, -6.45, -6.71, -7.36, -6.97, -6.45, -6.45, -5.2, -4.4, -3.61, -3.61, -3.61, 6.97, 6.97, 6.97, 6.97, 6.97, 7.26, 7.26, 7.61, 7.61, 7.61, 7.61, 7.61, 7.61, 7.61, 7.61, 8.22, 8.22, 8.22, 8.22, 8.22, 8.78, 8.78, 8.78, 8.78, 8.78, 8.73, 8.73, 8.73, 8.73, 9.01, 9.01, 9.01, 9.3, 8.93, 8.73, 9.02, 9.4, 9.4, 9.4, 9.4, 9.4, 9.32, 9.47, 9.47, 9.47, 9.72, 9.72, 9.96, 9.86, 10.1, 9.68, 9.46, 9.03, 9.03, 8.74, 8.71, 8.39, 8.39, 8.39, 7.94, 7.94, 7.92, 7.92, 7.89, 7.71, 8.06, 8.06, 7.95, 7.37, 9.55, 9.55, 10.58, 10.18, 9.83, 9.83, 9.83, 9.76, 10.18, 9.86, 10.68, 12.3, 13.67, 15.65, 19.1, 25.93, -0.0, -7.81, -8.06, -6.71, -7.36, -7.65, -7.72, -6.7, -5.77, -5.54, -5.0, -5.0, -5.0, 6.97, 6.97, 6.97, 6.97, 6.97, 7.26, 7.26, 7.61, 7.61, 7.61, 7.61, 7.61, 7.61, 7.61, 7.61, 7.91, 8.22, 8.22, 8.22, 8.22, 8.52, 8.78, 8.78, 8.73, 8.73, 8.73, 8.73, 8.73, 9.01, 8.65, 8.65, 8.93, 8.93, 8.93, 8.93, 9.2, 9.2, 9.58, 9.58, 9.58, 9.58, 9.47, 9.47, 9.47, 9.47, 9.72, 9.72, 9.86, 9.86, 10.1, 9.68, 9.46, 9.46, 9.03, 8.74, 8.71, 8.28, 8.39, 8.39, 8.39, 7.94, 7.94, 7.92, 8.19, 8.14, 8.14, 8.48, 8.48, 8.0, 8.82, 8.82, 9.75, 9.33, 9.03, 9.03, 9.03, 9.11, 9.03, 9.45, 11.18, 12.35, 13.41, 14.75, 17.35, 23.6, 24.79, -3.23, -9.09, -8.85, -8.22, -8.22, -8.22, -8.53, -7.73, -6.45, -5.77, -5.77, -5.77, 6.97, 6.97, 6.97, 6.97, 7.26, 7.26, 7.26, 7.61, 7.61, 7.61, 7.61, 7.61, 7.61, 7.61, 7.91, 7.91, 8.22, 8.22, 8.22, 8.22, 8.22, 8.19, 8.45, 8.45, 8.73, 8.73, 8.73, 9.01, 8.65, 8.65, 8.65, 8.93, 8.73, 8.73, 8.93, 9.2, 9.2, 9.2, 9.2, 9.2, 9.47, 9.47, 9.47, 9.47, 9.47, 9.72, 9.72, 9.86, 9.86, 10.1, 9.68, 9.5, 9.5, 9.07, 8.74, 8.74, 8.3, 8.3, 8.39, 8.39, 8.39, 8.38, 8.38, 8.19, 8.19, 8.14, 8.56, 8.3, 8.17, 7.82, 8.21, 10.0, 9.75, 9.03, 9.03, 9.03, 9.32, 9.76, 10.2, 11.51, 12.52, 13.41, 14.66, 16.46, 22.49, 27.72, -0.0, -11.38, -11.64, -10.73, -10.01, -9.66, -8.85, -9.17, -7.73, -5.99, -5.99, -5.99, 6.71, 6.71, 6.71, 7.26, 7.26, 7.26, 7.26, 7.61, 7.61, 7.61, 7.61, 7.61, 7.61, 7.61, 7.91, 7.91, 7.91, 8.22, 8.22, 7.9, 7.9, 8.19, 8.19, 8.19, 8.73, 8.73, 9.01, 9.01, 8.65, 8.65, 8.65, 8.93, 8.73, 8.73, 8.93, 9.2, 9.2, 9.2, 9.2, 9.2, 9.47, 9.47, 9.47, 9.47, 9.47, 9.72, 9.6, 9.86, 10.1, 10.1, 9.75, 9.5, 9.5, 9.21, 9.21, 8.85, 8.85, 8.3, 8.41, 8.39, 8.39, 8.39, 8.38, 8.24, 8.19, 8.19, 8.3, 8.3, 8.3, 7.82, 8.21, 9.7, 9.2, 10.18, 9.29, 9.76, 9.76, 9.83, 10.28, 10.73, 12.07, 12.88, 13.96, 15.34, 20.72, 27.5, -0.0, -14.39, -13.39, -12.66, -11.2, -10.61, -9.66, -8.85, -8.15, -6.4, -6.4, -6.4, 6.33, 6.33, 6.71, 6.98, 6.98, 6.98, 7.26, 7.61, 7.61, 7.61, 7.61, 7.61, 7.61, 7.61, 7.91, 7.6, 7.6, 7.9, 7.9, 7.9, 7.9, 8.19, 8.19, 8.19, 8.49, 8.49, 8.79, 8.79, 8.44, 8.44, 8.73, 8.73, 8.73, 8.73, 8.73, 9.2, 9.2, 9.2, 9.2, 9.47, 9.47, 9.47, 9.47, 9.47, 9.83, 9.72, 9.96, 10.1, 10.1, 9.68, 9.93, 9.5, 9.5, 9.21, 9.21, 8.86, 8.85, 8.85, 8.85, 8.41, 8.39, 8.39, 8.39, 8.24, 8.24, 8.24, 8.4, 8.4, 8.3, 8.0, 8.4, 8.4, 8.4, 11.03, 9.29, 9.76, 9.76, 9.83, 10.28, 10.62, 11.28, 12.58, 13.15, 14.13, 18.47, 24.91, 24.14, -18.78, -15.43, -14.18, -12.39, -11.99, -10.37, -9.42, -8.85, -7.28, -7.28, -7.28, 6.33, 6.33, 6.71, 6.98, 6.98, 6.98, 7.26, 7.61, 7.61, 7.61, 7.61, 7.61, 7.61, 7.61, 7.91, 7.6, 7.6, 7.9, 7.9, 7.9, 7.9, 8.19, 8.19, 8.19, 8.49, 8.49, 8.79, 8.79, 8.44, 8.44, 8.73, 8.73, 8.73, 8.73, 8.73, 9.2, 9.2, 9.2, 9.2, 9.47, 9.47, 9.47, 9.47, 9.47, 9.83, 9.72, 9.96, 10.1, 10.1, 9.68, 9.93, 9.5, 9.5, 9.21, 9.21, 8.86, 8.85, 8.85, 8.85, 8.41, 8.39, 8.39, 8.39, 8.24, 8.24, 8.24, 8.4, 8.4, 8.3, 8.0, 8.4, 8.4, 8.4, 11.03, 9.29, 9.76, 9.83, 9.83, 10.28, 10.62, 11.28, 11.72, 12.72, 13.57, 15.78, 20.03, 23.6, 21.01, 13.59, -11.38, -11.87, -11.64, -11.28, -10.3, -8.85, -7.73, -7.73, -7.73]}, {"header": {"dx": 0.06612293990616946, "dy": 0.0552356325346848, "nx": 98, "ny": 59, "la1": 35.046912555036876, "la2": 31.78801023549047, "lo1": -121.43107172385933, "lo2": -114.95102361305473, "refTime": "2026041602", "parameterCategory": 1, "parameterNumber": 3}, "data": [-13.73, -13.73, -13.73, -13.49, -12.86, -12.27, -11.67, -11.06, -10.45, -10.13, -9.21, -8.24, -8.15, -6.3, -4.24, -1.64, 0.0, 0.0, 0.0, 0.0, 0.0, 0.0, 0.0, 0.0, -6.98, -11.62, -10.8, -11.2, -11.45, -11.45, -12.35, -12.96, -12.52, -10.84, -9.2, -8.8, -6.64, -6.64, -6.64, -6.42, -5.46, -7.15, -6.45, -7.02, -6.51, -6.94, -7.53, -6.05, -3.94, 0.0, 0.0, 1.23, 2.31, 2.21, 2.21, 3.07, 2.88, 2.88, 2.8, 2.89, 1.95, 1.95, 2.89, 2.81, 1.83, 2.64, 2.64, 2.64, 3.92, 4.15, 3.37, 3.28, 2.21, 2.38, 2.38, 1.11, 1.05, 0.0, 0.0, 0.0, 0.0, 0.0, 3.14, 10.41, 12.07, 11.62, 12.07, 11.18, 10.96, 10.96, 12.27, 13.23, 13.67, 13.99, 13.7, 12.27, 10.12, 8.1, -13.73, -13.38, -13.38, -13.15, -13.15, -12.6, -11.67, -11.06, -10.45, -10.43, -9.8, -9.36, -8.1, -6.44, -5.11, -3.82, -1.76, 0.0, 0.0, -2.28, 0.0, 0.0, 0.0, 0.0, -5.52, -11.18, -10.4, -10.8, -10.8, -11.2, -13.28, -13.59, -12.52, -9.83, -7.63, -7.44, -5.69, -6.32, -6.64, -7.27, -8.85, -9.48, -8.3, -7.93, -8.31, -7.82, -6.6, -4.74, -1.38, 0.0, 0.0, 0.0, 1.17, 1.01, 2.01, 2.07, 2.07, 2.01, 2.01, 1.95, 1.95, 1.95, 1.89, 1.83, 1.83, 2.55, 2.64, 2.64, 2.8, 3.16, 3.24, 2.28, 2.45, 1.08, 1.08, 1.05, 1.13, 0.0, 0.0, 0.0, 0.0, 0.0, 3.14, 10.41, 12.07, 11.62, 12.07, 11.18, 10.96, 10.96, 12.27, 13.23, 13.67, 13.99, 13.7, 12.27, 10.12, 8.1, -13.66, -13.66, -13.15, -13.15, -13.15, -12.9, -12.27, -11.06, -10.75, -10.43, -9.8, -8.5, -8.1, -6.7, -4.72, -4.08, -2.82, -3.19, -3.82, -3.14, -4.32, -3.04, -3.96, -4.24, -9.8, -10.73, -9.6, -8.93, -10.27, -10.68, -13.56, -14.42, -14.3, -11.18, -8.24, -7.44, -6.01, -6.32, -7.56, -8.93, -8.53, -8.53, -8.72, -8.59, -8.14, -6.78, -3.41, -1.33, 0.0, 0.0, 0.0, 0.0, 0.0, 0.0, 0.98, 1.08, 1.01, 1.01, 0.98, 1.95, 1.95, 1.89, 2.72, 2.55, 2.72, 2.81, 2.72, 2.88, 2.88, 2.13, 2.13, 2.28, 2.21, 2.15, 2.24, 1.05, 1.17, 0.0, 0.0, 0.0, 0.0, 0.0, 4.1, 11.71, 11.62, 11.62, 11.18, 11.18, 11.18, 12.27, 14.03, 14.47, 14.47, 13.7, 12.27, 10.73, 9.17, 6.44, -13.66, -13.44, -13.09, -12.8, -12.8, -12.8, -12.27, -11.67, -11.36, -10.43, -10.09, -9.42, -8.85, -7.14, -6.16, -5.2, -4.08, -4.75, -4.58, -3.82, -3.53, -2.71, -5.0, -5.0, -8.53, -12.96, -9.2, -8.18, -9.04, -10.46, -11.3, -13.44, -15.18, -15.65, -11.87, -9.6, -8.23, -7.59, -8.23, -9.17, -9.77, -9.17, -8.21, -6.72, -5.18, -3.41, -1.38, 0.0, 0.0, 0.0, 0.0, 0.0, 0.0, 0.0, 0.0, 0.0, 0.98, 0.98, 1.95, 1.89, 2.89, 2.81, 2.64, 2.55, 2.72, 2.89, 2.88, 2.72, 3.99, 4.34, 4.54, 3.52, 3.52, 3.09, 2.02, 1.06, 0.0, 0.0, 0.0, 0.0, 0.0, 0.0, 10.79, 11.62, 10.96, 11.46, 11.91, 11.62, 11.18, 13.86, 15.2, 14.75, 13.59, 11.99, 10.37, 8.05, 6.67, 7.51, -13.3, -13.09, -13.09, -13.09, -12.8, -12.56, -12.56, -12.27, -11.36, -10.43, -9.77, -9.42, -8.97, -8.22, -6.71, -6.16, -5.64, -5.2, -4.58, -6.7, -7.78, -8.85, -6.45, -5.2, -6.7, -11.71, -12.14, -10.8, -10.96, -9.97, -10.47, -10.91, -11.35, -12.52, -14.11, -13.57, -13.59, -11.53, -9.52, -9.89, -10.23, -8.54, -6.51, -5.63, -3.98, -3.01, -1.58, 0.0, 0.0, 0.0, 0.0, 0.0, 0.0, 0.0, 0.0, 0.0, 1.05, 1.95, 1.95, 2.81, 2.81, 2.72, 2.72, 2.89, 2.89, 3.24, 3.56, 4.54, 7.68, 9.0, 8.8, 6.88, 6.58, 5.51, 2.57, 0.0, 0.0, -1.3, -1.53, 0.0, -1.83, 3.14, 12.07, 10.84, 9.58, 10.79, 11.84, 11.62, 13.41, 15.2, 14.3, 12.58, 12.14, 10.79, 9.17, 8.05, 7.78, 10.01, -13.38, -13.09, -13.09, -13.09, -12.8, -12.56, -12.56, -12.56, -11.63, -10.72, -9.72, -9.02, -8.97, -7.65, -7.27, -6.71, -5.92, -6.76, -7.27, -8.22, -9.46, -10.8, -12.45, -11.99, -10.01, -11.71, -11.84, -11.84, -12.71, -11.84, -9.76, -10.28, -10.28, -10.23, -11.84, -13.53, -12.56, -9.5, -8.47, -9.77, -10.61, -10.12, -6.88, -4.52, -2.81, -1.63, 0.0, 0.0, 0.0, 0.0, 0.0, 0.0, 0.0, 1.1, 1.13, 2.09, 2.09, 2.89, 2.89, 2.64, 2.55, 1.77, 1.95, 2.15, 3.37, 5.0, 6.71, 8.88, 9.12, 10.14, 9.8, 9.0, 7.68, 5.52, 3.01, 0.0, -1.33, -1.43, -1.83, -2.13, 0.0, 11.03, 10.0, 9.3, 8.22, 9.3, 10.8, 13.01, 14.31, 14.3, 12.96, 13.01, 11.16, 10.79, 9.17, 10.73, 12.04, 11.62, -13.38, -13.38, -13.09, -13.09, -13.09, -12.56, -12.56, -12.22, -11.96, -10.99, -10.01, -9.01, -9.08, -6.86, -7.02, -6.44, -6.71, -6.97, -7.65, -7.9, -7.9, -9.3, -10.21, -11.71, -12.35, -11.62, -11.28, -11.71, -12.27, -10.62, -11.18, -9.83, -9.77, -8.91, -10.6, -12.66, -11.72, -10.73, -8.22, -9.63, -12.27, -12.3, -10.12, -4.81, 0.0, 0.0, 2.0, 1.68, 1.38, 1.72, 1.77, 2.48, 2.56, 3.58, 3.22, 2.9, 3.0, 3.0, 1.89, 1.72, 0.84, 0.89, 1.08, 2.45, 6.84, 9.49, 10.61, 9.47, 8.4, 6.88, 6.5, 6.22, 3.82, 2.52, 1.3, 0.0, 0.0, 0.0, 0.0, 0.0, 5.2, 11.28, 9.66, 7.24, 5.4, 5.6, 7.69, 10.12, 10.12, 11.99, 11.99, 13.41, 12.72, 12.72, 13.01, 12.71, 12.27, 11.91, -13.01, -13.01, -12.73, -13.09, -13.09, -12.56, -12.22, -12.22, -11.63, -11.28, -9.66, -9.3, -9.17, -8.22, -7.24, -6.15, -6.67, -6.92, -7.72, -7.65, -6.71, -5.43, -6.7, -8.53, -9.7, -10.28, -7.27, -0.0, -11.62, -10.96, -11.18, -11.62, -11.06, -10.18, -10.6, -10.91, -10.14, -11.18, 0.0, -11.62, -11.18, 0.0, 0.0, 6.2, 10.43, 7.2, 7.76, 6.54, 5.99, 3.47, 3.6, 3.53, 4.38, 4.38, 3.12, 1.96, 1.96, 0.99, 0.0, 0.0, 0.0, 0.0, 1.26, 7.0, 12.03, 12.63, 10.76, 7.0, 5.04, 3.79, 2.94, 1.52, 0.0, 0.0, 0.0, 0.0, 0.0, 0.0, 0.0, 0.0, 11.88, 12.52, 10.8, 5.6, 3.04, -0.0, -0.0, -0.0, -0.0, -0.0, 5.8, 11.6, 13.41, 13.86, 13.41, 12.52, 11.91, 11.46, -13.01, -13.01, -13.01, -12.73, -12.73, -12.56, -12.22, -12.22, -11.92, -11.28, -10.51, -10.02, -11.33, -10.56, -9.42, -9.02, -9.02, -8.53, -8.22, -7.9, -6.98, -5.2, -4.32, -4.12, -5.4, -5.6, 9.39, 9.83, 0.0, -10.73, -10.28, -10.73, -10.41, -10.6, -9.58, -9.55, -10.73, 7.59, 11.62, 11.18, 12.52, 11.87, 10.41, 9.48, 7.93, 6.2, 5.98, 6.31, 6.54, 5.64, 5.18, 4.43, 4.24, 3.36, 2.11, 0.99, 0.0, -0.86, -0.83, -1.6, -0.89, 0.0, 5.99, 13.02, 13.58, 11.36, 9.36, 6.66, 4.24, 2.64, 0.0, 0.0, -1.27, -2.07, -1.95, -1.1, -1.25, 0.0, 0.0, 5.64, 12.42, 12.33, 14.03, 9.8, -0.0, -0.0, -0.0, -4.1, -3.04, -0.0, 9.17, 11.6, 12.79, 13.41, 13.41, 12.35, 11.46, 11.91, -13.01, -13.01, -13.01, -12.73, -12.51, -12.51, -12.22, -12.16, -11.58, -11.23, -11.07, -11.34, -10.41, -10.83, -11.41, -10.81, -10.79, -11.2, -10.8, -10.0, -9.6, -9.48, -8.22, -7.65, -6.5, -5.0, 6.95, 9.83, 0.0, -4.6, -7.59, 0.0, 0.0, 0.0, 0.0, 0.0, 10.73, 8.94, 10.4, 6.94, 7.54, 7.82, 6.7, 5.2, 3.19, 1.83, 1.66, 3.1, 6.35, 7.0, 6.6, 6.1, 4.89, 2.28, 1.15, 0.0, 0.0, -0.93, -2.34, -2.81, -1.47, 7.4, 16.02, 14.65, 13.58, 13.03, 10.98, 9.23, 5.63, 1.77, 0.0, -1.2, -3.16, -3.16, -3.07, -2.72, -3.53, -2.52, -1.71, 8.58, 12.89, 13.06, 12.56, 14.84, 6.2, -3.25, -6.2, -6.2, -0.0, 9.17, 12.04, 11.87, 12.35, 12.96, 12.96, 12.35, 12.35, 12.35, -13.01, -13.01, -13.01, -12.73, -12.51, -12.51, -12.51, -11.92, -11.87, -11.23, -11.16, -11.72, -11.72, -11.07, -11.03, -10.66, -10.04, -11.04, -11.41, -11.81, -12.79, -13.19, -12.17, -10.25, -10.55, -7.59, 0.0, 0.0, 0.0, -4.4, 0.0, 9.39, 9.83, 9.83, 6.95, 0.0, 5.2, 8.22, 8.22, 6.94, 6.43, 6.94, 4.58, 3.82, 1.91, 1.64, 1.5, 4.39, 5.8, 7.11, 7.16, 8.93, 7.82, 7.82, 8.53, 9.61, 7.4, 1.53, -2.13, -2.2, 13.95, 17.13, 15.69, 15.02, 14.61, 15.45, 16.22, 14.65, 9.89, 3.44, 0.0, -2.24, -5.41, -5.98, -5.64, -5.28, -4.17, -4.54, 0.0, 13.03, 12.89, 11.77, 10.69, 11.06, 11.38, -0.0, -10.75, -0.0, 10.12, 12.45, 12.35, 12.39, 12.39, 12.52, 12.07, 12.79, 12.3, 12.3, -13.01, -13.01, -13.01, -12.73, -12.51, -12.51, -12.51, -11.92, -11.52, -11.23, -11.72, -11.72, -11.8, -11.23, -9.13, -8.22, -7.82, -8.53, -8.54, -7.69, -6.85, -6.6, -5.92, -6.16, -4.24, -3.04, 0.0, -0.0, -0.0, 0.0, 0.0, 9.6, 10.73, 7.27, 4.6, 3.39, 5.95, 8.22, 8.22, 6.7, 6.21, 5.99, 4.58, 3.68, 2.1, 1.69, 3.82, 6.94, 9.17, 9.8, 9.16, 10.76, 14.26, 18.38, 18.24, 18.41, 18.68, 14.42, 0.0, 13.15, 17.88, 17.92, 16.85, 15.47, 15.55, 18.65, 21.2, 21.04, 16.09, 8.43, 2.89, 0.0, -4.66, -7.28, -6.96, -5.52, -5.64, -5.48, 7.0, 12.52, 12.22, 10.47, 9.87, 10.73, 9.95, 6.08, 0.0, 12.65, 14.75, 13.72, 12.42, 11.51, 11.53, 11.62, 12.52, 12.83, 12.3, 12.46, -12.93, -13.01, -13.01, -12.73, -12.51, -12.51, -12.16, -11.58, -11.52, -11.23, -11.44, -11.44, -11.44, -10.94, -9.8, -8.24, -6.67, -5.8, -4.24, -3.12, -2.81, -1.72, -0.8, 0.0, 0.0, 0.0, 0.0, 0.0, 2.93, 4.4, 11.18, 10.0, 7.59, 4.6, 7.27, 5.7, 6.17, 6.98, 6.98, 6.2, 5.2, 4.58, 3.07, 1.62, 0.0, 0.0, 8.22, 10.04, 10.79, 9.48, 8.85, 10.47, 12.79, 15.05, 16.99, 17.02, 17.25, 16.12, 7.2, 11.45, 16.05, 16.37, 16.76, 15.74, 18.17, 19.94, 21.92, 23.93, 21.99, 20.03, 14.85, 10.2, 0.0, -6.97, -6.48, -7.56, -8.85, 0.0, 11.38, 11.7, 10.69, 8.77, 7.82, 7.4, 9.0, 8.4, 6.91, 8.87, 15.27, 14.3, 13.75, 11.53, 11.09, 11.62, 12.52, 12.79, 12.79, 12.72, -12.93, -12.65, -13.01, -13.01, -12.51, -12.51, -11.92, -11.58, -11.52, -11.23, -11.23, -11.23, -11.23, -10.94, -10.12, -8.87, -7.73, -6.57, -5.38, -4.87, -4.04, -3.1, -2.19, -1.47, -0.68, -0.68, -0.77, -1.25, 0.0, 12.52, 10.73, 7.59, 5.0, 5.46, 4.4, 6.95, 6.95, 7.27, 6.42, 4.8, 3.39, 1.45, 0.0, 0.0, 0.0, 7.27, 8.72, 10.6, 10.4, 8.85, 8.85, 8.53, 10.8, 12.07, 12.52, 10.41, 7.0, 4.66, 0.0, 13.86, 13.8, 15.55, 16.15, 16.58, 16.31, 16.27, 17.36, 18.41, 19.72, 17.16, 16.75, 14.72, 0.0, -9.2, -10.6, -10.43, 7.4, 12.33, 11.29, 10.61, 9.74, 7.4, 5.35, 5.19, 6.35, 6.72, 7.26, 9.09, 14.51, 16.31, 14.3, 11.18, 11.18, 12.52, 12.52, 12.83, 12.79, 12.3, -12.93, -12.65, -12.65, -13.01, -12.51, -12.51, -11.92, -11.58, -11.52, -10.94, -11.23, -11.23, -11.23, -10.69, -10.09, -9.5, -8.23, -7.69, -6.73, -6.2, -5.45, -4.79, -3.47, -2.81, -2.02, -1.31, -1.31, -1.53, -1.21, 0.0, 4.65, 3.82, 3.53, 3.25, 5.7, 7.27, 8.58, 7.68, 6.71, 3.11, 1.45, 0.0, 0.0, 0.0, 4.4, 8.8, 9.64, 9.97, 8.93, 10.0, 5.2, 5.0, 7.59, 8.4, 8.8, 7.59, 0.0, -3.81, 0.0, 10.89, 12.66, 12.79, 13.15, 12.27, 13.7, 13.59, 16.05, 15.19, 11.38, 10.35, 11.95, 12.87, -20.56, -11.87, 0.0, 13.23, 13.12, 11.96, 10.76, 9.42, 8.35, 5.81, 4.12, 3.53, 2.81, 3.69, 5.34, 7.2, 13.1, 15.9, 16.99, 13.41, 11.62, 12.52, 13.41, 12.79, 12.3, 12.3, -12.93, -12.93, -12.65, -13.01, -12.51, -12.51, -12.51, -11.92, -11.87, -11.28, -11.23, -10.88, -10.65, -10.36, -9.77, -9.19, -8.87, -8.23, -7.4, -6.68, -5.69, -4.98, -4.58, -3.42, -2.76, -2.09, -0.66, 0.0, 0.0, 1.03, 1.11, 1.09, 1.14, 0.0, 2.49, 5.59, 7.27, 7.27, 4.8, 2.02, 0.0, 0.0, 0.0, 3.65, 6.95, 8.4, 9.64, 9.97, 8.55, 7.27, 6.2, 6.45, 6.45, 5.95, 6.64, 3.11, 0.0, -2.28, 0.0, 8.68, 9.08, 8.93, 9.08, 7.54, 6.7, 4.1, 5.8, 6.8, 8.93, 13.91, 11.9, -18.78, -10.41, -0.0, 13.59, 15.25, 14.22, 12.69, 11.17, 10.17, 9.24, 7.58, 6.9, 5.18, 4.24, 4.4, 3.68, 8.1, 11.26, 12.74, 14.84, 12.96, 12.96, 13.41, 12.42, 11.45, 11.2, 11.2, -12.93, -12.93, -12.45, -12.45, -12.8, -12.51, -12.51, -11.92, -11.58, -11.28, -10.94, -10.65, -10.65, -10.36, -9.77, -9.48, -8.58, -7.96, -7.57, -6.46, -6.0, -5.28, -4.24, -3.21, -2.02, -0.65, 0.0, 0.7, 1.47, 0.75, 0.0, 0.0, 0.0, 0.0, 0.0, 2.97, 5.06, 5.95, 3.25, 0.0, 0.0, 0.0, 2.49, 6.32, 7.87, 8.8, 9.2, 9.2, 8.23, 6.17, 6.17, 6.44, 6.71, 5.52, 5.52, 5.29, 3.25, 1.52, 4.75, 7.54, 8.15, 7.15, 5.95, 4.8, 1.76, 1.69, 0.0, 0.0, 6.2, 7.8, 0.0, -18.33, -12.64, 14.86, 13.58, 14.66, 13.59, 12.8, 11.63, 10.15, 9.92, 8.97, 7.6, 7.54, 7.1, 7.44, 6.21, 11.6, 11.64, 12.39, 13.99, 13.41, 12.52, 12.96, 12.79, 11.45, 11.2, 11.2, -12.93, -12.73, -12.45, -12.45, -12.45, -12.16, -12.16, -11.92, -11.58, -11.28, -10.94, -10.65, -10.65, -10.39, -9.78, -8.87, -8.87, -8.23, -7.59, -6.5, -5.32, -4.77, -4.24, -2.63, -0.64, 0.0, 0.0, 0.0, 0.0, 0.0, 0.0, 0.0, 0.0, -1.01, -1.07, 0.0, 0.0, 0.0, 0.0, 0.0, 0.0, 4.4, 4.4, 7.27, 7.27, 8.23, 8.58, 8.23, 6.17, 5.29, 5.29, 5.29, 5.29, 5.29, 6.42, 6.42, 5.7, 5.95, 7.15, 7.15, 7.02, 5.77, 4.8, 3.39, 1.52, 1.39, 0.0, 0.0, -6.7, -8.68, -3.95, 0.0, 6.22, 10.27, 10.25, 10.61, 10.52, 10.15, 9.64, 9.32, 8.27, 8.56, 8.68, 7.79, 8.85, 9.62, 10.12, 11.26, 10.91, 12.42, 12.79, 12.79, 11.62, 12.07, 12.79, 12.04, 10.87, 10.87, -12.37, -12.73, -12.73, -12.45, -12.45, -12.45, -12.16, -11.92, -11.58, -10.99, -10.94, -10.36, -10.65, -10.39, -10.06, -10.12, -8.87, -8.58, -7.22, -5.83, -5.28, -5.04, -4.93, -4.24, -2.62, -2.72, -2.25, -2.9, -2.81, -1.72, -1.15, 0.0, 0.0, 0.0, -2.42, -3.39, -4.18, -5.21, -4.4, -2.6, 0.0, 2.02, 3.53, 5.0, 6.97, 7.59, 6.44, 6.17, 6.17, 5.29, 5.29, 5.29, 5.29, 6.42, 8.03, 7.27, 6.42, 7.15, 7.73, 6.76, 5.77, 4.58, 3.07, 2.39, 1.22, 0.0, 0.0, -1.45, -2.6, -2.35, 0.0, 5.18, 8.04, 9.54, 5.65, 3.52, 1.34, 1.27, 2.25, 3.65, 4.47, 5.51, 7.98, 7.28, 9.48, 10.47, 11.5, 10.79, 10.91, 10.91, 11.9, 12.72, 11.91, 11.46, 13.15, 12.27, 10.82, 10.82, -12.37, -12.37, -12.37, -12.45, -12.45, -12.45, -12.45, -11.92, -11.58, -11.33, -10.94, -10.36, -10.39, -10.39, -10.39, -9.46, -8.85, -8.82, -8.42, -6.94, -6.73, -6.8, -7.05, -7.49, -6.79, -6.15, -5.43, -5.67, -5.46, -2.54, 0.0, 3.04, 3.82, 2.93, 0.0, -4.23, -5.69, -5.52, -3.98, -1.84, 0.0, 0.89, 2.94, 4.15, 5.43, 5.98, 4.6, 4.6, 3.82, 3.65, 3.65, 3.82, 6.44, 8.73, 7.68, 6.95, 7.9, 6.98, 6.98, 5.77, 4.4, 2.95, 1.52, 0.0, 0.0, 0.0, 0.0, 0.0, 1.5, 4.98, 7.4, 8.32, 8.35, 6.4, 2.09, -0.97, -4.42, -7.2, -3.72, -1.3, 0.0, 3.59, 5.99, 8.38, 10.82, 11.16, 11.16, 11.26, 10.79, 10.41, 11.5, 11.99, 12.3, 12.79, 13.15, 13.03, 10.43, 10.43, -12.37, -12.37, -12.37, -12.09, -12.09, -12.09, -12.09, -11.87, -11.58, -11.33, -10.99, -10.36, -10.39, -10.39, -10.39, -9.48, -9.17, -9.15, -9.12, -9.06, -8.84, -8.58, -8.84, -8.58, -8.64, -7.93, -6.48, -5.48, -4.33, -1.28, 0.0, 1.64, 3.68, 2.28, 0.0, -4.15, -6.2, -5.69, -4.36, -2.94, -0.93, 0.0, 1.84, 3.18, 4.72, 4.48, 4.4, 3.82, 3.82, 2.02, 1.93, 6.17, 8.58, 9.58, 8.38, 8.03, 7.9, 7.9, 7.44, 5.0, 3.53, 1.84, 1.52, 0.0, 0.0, 0.0, 2.1, 6.7, 9.84, 10.43, 11.06, 10.65, 8.85, 1.39, -2.3, -6.12, -11.64, -12.08, -10.47, -6.8, -1.56, 3.79, 8.18, 9.48, 10.65, 11.5, 11.99, 11.64, 11.64, 9.42, 10.73, 11.5, 12.79, 11.99, 11.88, 11.52, 10.43, 10.43, -12.37, -12.37, -12.37, -12.37, -12.09, -11.87, -11.87, -11.87, -11.87, -11.33, -10.99, -10.69, -10.09, -10.39, -10.39, -9.8, -9.48, -9.48, -10.11, -10.11, -9.44, -8.38, -7.99, -7.99, -8.08, -7.17, -6.12, -4.1, -2.22, -0.86, 0.0, 0.0, 0.97, 0.0, 0.0, 0.0, -5.98, -6.45, -5.54, -4.54, -2.19, 0.0, 0.0, 2.37, 3.53, 4.8, 3.98, 1.93, 2.02, 2.02, 4.6, 8.58, 9.2, 9.58, 9.2, 8.73, 9.46, 10.01, 7.44, 5.52, 4.05, 2.95, 1.39, 0.0, 0.0, 1.58, 9.08, 11.61, 12.3, 13.99, 14.38, 15.27, 12.72, 2.99, -6.53, -8.85, -12.97, -14.88, -13.84, -10.6, -2.21, 7.4, 11.38, 13.03, 12.79, 11.99, 12.72, 12.79, 12.81, 10.04, 10.35, 11.99, 11.9, 11.17, 11.17, 10.12, 10.43, 10.43, -12.37, -12.37, -12.37, -12.37, -11.87, -11.87, -11.87, -11.87, -11.87, -11.28, -10.99, -10.69, -10.69, -10.09, -10.39, -10.11, -9.8, -9.48, -9.78, -9.73, -8.75, -7.16, -6.8, -6.57, -6.8, -6.73, -5.93, -4.79, -2.81, -2.18, -0.75, -0.72, 0.0, 0.0, 0.0, -1.44, -4.32, -5.98, -6.45, -5.77, -4.08, -1.28, 0.0, 1.28, 2.82, 4.4, 2.1, 1.84, 2.28, 4.6, 7.27, 8.58, 9.2, 8.94, 9.2, 9.2, 10.0, 10.55, 9.17, 6.11, 4.2, 2.82, 1.64, 1.64, 3.53, 8.73, 10.88, 10.91, 11.28, 11.5, 11.53, 12.64, 0.0, 0.0, -8.05, -8.63, -11.44, -13.89, -15.61, -7.4, 3.36, 11.06, 13.99, 14.53, 13.7, 13.15, 12.87, 13.28, 13.03, 11.87, 11.12, 11.16, 11.17, 11.17, 10.12, 8.94, 8.94, 8.94, -12.0, -12.0, -11.8, -11.8, -11.87, -11.87, -11.52, -11.52, -11.52, -11.28, -11.28, -10.69, -10.69, -10.42, -10.39, -10.11, -10.12, -9.78, -9.46, -9.16, -8.49, -7.16, -6.27, -6.08, -6.07, -6.27, -5.45, -5.02, -4.24, -3.47, -2.87, -2.1, -1.44, -0.7, -1.58, -1.84, -2.42, -3.92, -5.77, -4.08, -2.82, -1.28, 0.0, 1.44, 1.44, 3.07, 2.45, 2.19, 2.6, 5.0, 8.22, 8.94, 8.58, 8.58, 9.2, 9.2, 8.82, 10.35, 9.17, 8.22, 5.72, 4.2, 3.53, 6.45, 7.9, 10.8, 11.45, 11.5, 10.0, 9.3, 5.0, -7.64, 0.0, 8.91, 7.4, 4.24, 0.0, -5.8, 0.0, 8.43, 9.8, 11.9, 14.31, 14.03, 14.47, 14.47, 13.7, 13.7, 13.03, 13.8, 11.09, 10.73, 10.82, 8.66, 10.12, 8.94, 8.66, 8.66, -11.8, -11.8, -11.8, -11.8, -11.8, -11.52, -11.52, -11.52, -11.28, -11.28, -10.94, -10.69, -10.69, -10.42, -10.42, -10.12, -10.12, -9.48, -9.17, -8.87, -8.51, -7.83, -7.16, -6.04, -5.8, -6.07, -5.71, -5.11, -4.46, -3.78, -3.66, -3.14, -2.31, -2.14, -2.06, -2.1, -2.51, -3.53, -4.15, -3.34, -2.28, -1.16, 0.0, 0.0, 1.39, 1.33, 0.0, 1.07, 1.93, 2.83, 4.36, 6.44, 7.59, 8.93, 9.2, 9.2, 8.55, 8.18, 8.22, 8.85, 6.98, 4.66, 4.4, 6.7, 10.09, 11.3, 11.45, 11.03, 10.8, 5.98, 0.0, -4.95, 0.0, 5.44, 10.29, 8.7, 6.64, 5.35, 4.52, 7.44, 9.8, 12.39, 13.41, 13.41, 14.75, 14.75, 14.47, 14.47, 14.11, 13.42, 13.26, 11.52, 10.12, 10.43, 8.38, 8.66, 8.66, 8.66, -12.09, -12.09, -11.8, -11.8, -11.8, -11.52, -11.52, -11.28, -10.94, -10.94, -10.94, -10.69, -10.69, -10.42, -10.42, -9.8, -9.8, -9.48, -9.17, -9.17, -8.51, -7.83, -7.83, -6.72, -6.25, -5.8, -5.27, -4.94, -4.55, -4.55, -3.87, -3.34, -3.04, -2.93, -2.14, -2.71, -2.76, -2.95, -3.07, -2.51, -1.84, -1.05, 0.0, 0.0, 0.0, 0.0, 0.0, 0.0, 0.98, 1.93, 2.42, 2.71, 5.6, 10.04, 10.84, 9.6, 7.27, 6.95, 8.55, 8.22, 5.4, 5.4, 4.66, 6.95, 9.3, 11.3, 11.87, 11.72, 9.96, 6.94, 1.71, 0.0, 0.0, 3.19, 8.62, 11.8, 9.8, 6.01, 2.28, 5.2, 9.48, 13.86, 12.65, 12.39, 14.11, 15.65, 14.99, 14.47, 13.7, 14.11, 14.57, 12.71, 10.75, 9.39, 8.31, 7.36, 7.13, 7.13, -11.72, -11.72, -11.44, -11.8, -11.8, -11.52, -11.28, -11.28, -10.94, -11.23, -10.99, -10.69, -10.69, -10.42, -10.42, -9.8, -9.8, -9.48, -9.17, -9.17, -8.51, -8.51, -7.57, -7.16, -6.72, -6.3, -5.8, -5.27, -4.94, -4.55, -3.87, -3.73, -3.73, -3.6, -3.11, -2.99, -2.99, -2.88, -2.76, -2.02, -1.58, -0.89, -0.97, 0.0, 0.0, 0.0, 0.0, 0.0, 0.0, 0.0, 0.0, 0.0, 1.69, 7.27, 10.0, 9.6, 7.59, 8.55, 7.81, 8.55, 3.82, 4.4, 4.15, 7.59, 10.73, 10.88, 11.09, 9.17, 7.19, 5.11, 1.61, 0.0, -1.47, 0.0, 6.36, 12.93, 9.13, 6.22, 0.0, 0.0, 0.0, 9.17, 11.9, 10.37, 13.15, 14.75, 15.43, 14.84, 14.11, 13.7, 13.03, 11.7, 10.89, 9.92, 7.82, 5.31, 5.31, 5.31, -11.72, -11.72, -11.44, -11.23, -11.23, -11.23, -10.94, -10.94, -11.23, -10.65, -10.99, -10.99, -10.69, -10.42, -10.42, -9.8, -9.8, -9.17, -8.87, -8.87, -8.23, -8.23, -7.85, -7.44, -6.99, -6.51, -5.8, -5.8, -5.08, -4.54, -4.17, -4.02, -3.41, -3.6, -3.6, -2.82, -2.99, -2.88, -2.19, -2.1, -2.34, -1.77, -0.93, 0.0, 0.0, 0.0, 0.0, 0.0, 0.0, 0.0, 0.0, 0.0, 0.0, 7.27, 9.96, 10.4, 7.9, 8.93, 9.55, 9.2, 6.2, 3.07, 3.07, 6.7, 10.09, 11.2, 8.59, 5.6, 1.71, 0.0, 0.0, 0.0, -1.33, -1.38, 0.0, 0.0, 0.0, 1.91, 0.0, 0.0, 0.0, 8.22, 13.01, 12.52, 12.52, 13.86, 14.64, 14.84, 14.53, 11.8, 11.8, 9.39, 10.33, 7.6, 6.14, 5.81, 5.64, 5.64, -11.52, -11.52, -11.23, -11.23, -11.23, -11.23, -10.94, -10.94, -11.23, -10.65, -10.65, -10.99, -10.99, -10.42, -10.42, -9.8, -9.48, -9.19, -8.87, -8.87, -8.53, -7.96, -7.59, -7.44, -7.44, -7.04, -6.57, -6.07, -5.6, -5.08, -4.37, -4.02, -4.02, -3.41, -3.28, -3.47, -2.82, -2.71, -2.88, -2.1, -2.34, -1.7, -1.84, -1.5, 0.0, 0.0, 0.0, -0.89, -2.02, -2.02, -2.71, -1.76, 0.0, 6.17, 8.58, 8.58, 8.53, 9.67, 9.6, 9.3, 3.53, 1.84, 3.82, 8.85, 10.35, 9.17, 9.8, 6.94, 1.91, -1.64, -1.72, -1.47, -1.25, -3.85, -6.85, -9.24, -8.42, -1.6, 0.0, 0.0, 0.0, 1.69, 4.39, 7.24, 10.79, 13.28, 13.28, 12.65, 10.75, 9.12, 6.6, 5.64, 3.07, 5.09, 5.37, 6.31, 2.72, 2.72, -11.16, -11.16, -11.16, -11.23, -11.23, -11.23, -11.23, -10.99, -10.65, -10.65, -10.65, -10.65, -10.73, -10.42, -10.42, -10.09, -9.19, -9.19, -8.87, -8.58, -8.24, -8.24, -7.87, -7.48, -7.48, -7.04, -6.57, -6.57, -5.86, -5.33, -5.08, -4.37, -3.82, -3.87, -3.87, -3.28, -3.47, -3.33, -2.71, -2.76, -2.25, -2.41, -2.71, -1.92, -1.11, 0.0, 0.0, -1.02, -2.49, -3.53, -2.19, 1.69, 3.82, 6.42, 7.59, 7.59, 7.87, 8.94, 8.22, 6.2, 3.39, 2.19, 6.21, 8.22, 7.54, 7.82, 9.48, 10.12, 6.98, 0.0, -4.8, -1.66, 0.0, 0.0, -5.23, -9.11, -8.24, -5.51, -1.41, 0.0, 0.0, 0.0, 1.91, 4.93, 6.09, 9.31, 11.09, 7.36, 5.48, 3.58, 3.58, 0.0, 2.57, 3.07, 2.65, 2.87, 2.87, 2.87, -11.16, -11.16, -11.16, -10.88, -10.88, -10.65, -10.65, -10.65, -10.65, -10.65, -10.65, -10.65, -10.39, -10.39, -10.09, -9.77, -9.48, -9.19, -8.87, -8.58, -8.24, -7.87, -7.87, -7.48, -7.48, -7.04, -7.34, -6.63, -5.86, -5.33, -5.33, -5.08, -4.37, -4.37, -3.68, -3.72, -3.72, -3.33, -3.2, -2.76, -2.76, -2.95, -2.41, -2.82, -3.08, -2.93, -1.33, -1.07, 0.0, 0.0, 1.33, 2.49, 3.61, 5.95, 6.7, 7.59, 6.17, 8.22, 5.95, 6.2, 2.71, 5.2, 6.21, 5.98, 4.48, 4.32, 5.2, 9.17, 8.53, 3.11, 0.0, 0.0, 5.49, 6.7, 1.4, -3.75, -6.93, -6.18, -4.86, -2.6, 0.0, 0.0, 2.72, 4.24, 5.28, 6.4, 6.4, 2.81, 0.0, 0.0, 0.0, 0.0, 0.0, 0.0, 0.0, 0.0, 0.0, 0.0, -11.16, -11.16, -11.16, -10.88, -10.65, -10.65, -10.65, -10.65, -10.65, -10.65, -10.3, -10.06, -10.39, -10.06, -9.77, -9.48, -9.48, -9.19, -8.87, -8.58, -8.24, -7.87, -7.87, -7.48, -7.48, -7.34, -7.09, -6.4, -6.53, -5.2, -5.86, -5.86, -5.08, -4.9, -4.37, -4.21, -3.72, -3.92, -3.2, -3.39, -3.25, -2.95, -3.16, -3.39, -3.39, -3.53, -2.71, -0.89, 0.0, 1.01, 1.92, 2.02, 3.39, 3.77, 4.6, 5.29, 6.71, 5.0, 4.8, 4.6, 5.4, 5.2, 4.32, 2.71, 2.28, 2.71, 0.0, 0.0, 0.0, 0.0, 1.69, 5.29, 6.2, 5.16, 5.05, 0.0, -3.02, -5.0, -4.74, -2.72, 0.0, 2.36, 3.07, 4.27, 4.16, 4.29, 3.52, 1.63, 0.0, 0.0, 0.0, 0.0, 0.0, 0.0, 0.0, 0.0, 0.0, 0.0, -11.16, -11.16, -11.16, -11.16, -10.65, -10.65, -10.65, -10.65, -10.65, -10.3, -10.06, -10.06, -10.06, -10.06, -9.77, -9.48, -9.48, -9.17, -8.58, -8.58, -8.24, -7.96, -7.6, -7.22, -7.22, -7.09, -7.09, -6.63, -6.7, -6.53, -5.98, -5.92, -5.65, -5.65, -5.14, -4.43, -4.43, -3.72, -3.92, -3.77, -3.25, -3.61, -3.61, -3.16, -3.53, -3.39, -2.41, -0.79, 0.0, 0.0, 0.0, 1.02, 1.23, 2.6, 2.82, 3.39, 2.1, 3.98, 4.6, 4.8, 6.44, 3.98, 5.2, 2.6, 2.71, 2.71, 0.0, 0.0, 0.0, 0.0, 3.32, 5.0, 3.68, 0.0, 0.0, 0.0, 0.0, 0.0, 0.0, 1.19, 2.13, 2.95, 2.87, 2.87, 2.72, 1.83, 1.0, 0.0, 0.0, -2.2, 0.0, 0.0, 0.0, 0.0, 0.0, 0.0, 3.69, 3.69, -11.44, -11.44, -11.16, -11.16, -10.65, -10.65, -10.65, -10.65, -10.3, -10.06, -10.06, -10.06, -10.06, -10.06, -9.46, -9.17, -9.17, -9.17, -8.87, -8.58, -8.24, -7.96, -7.6, -7.22, -7.22, -7.09, -7.09, -7.09, -7.09, -6.4, -5.7, -5.7, -5.7, -5.92, -5.65, -4.95, -4.95, -4.43, -4.48, -3.77, -3.98, -3.46, -3.61, -3.85, -3.16, -3.02, -2.31, -2.31, -1.63, -0.89, 0.0, 0.0, 0.0, 1.28, 1.45, 1.45, 1.69, 1.93, 4.6, 4.8, 6.94, 6.2, 6.2, 5.0, 4.6, 2.6, 2.6, 0.0, 0.0, 0.0, 3.96, 4.65, 0.0, -4.0, -5.75, -1.29, 2.07, 4.03, 4.13, 3.1, 1.6, 0.87, 0.0, 0.0, 0.0, 0.0, 0.0, 0.0, -3.1, -3.68, 0.0, 3.04, 2.45, 0.0, 0.0, 0.0, 10.75, 10.75, -11.07, -11.07, -10.8, -10.8, -10.59, -10.3, -10.3, -10.3, -10.06, -10.06, -10.06, -10.06, -10.06, -9.72, -9.46, -9.17, -9.17, -8.87, -8.87, -8.87, -8.24, -7.96, -7.6, -7.6, -7.22, -7.51, -7.09, -7.09, -7.09, -6.63, -5.92, -5.7, -5.7, -5.2, -5.2, -5.2, -5.2, -5.2, -5.0, -4.48, -4.54, -3.82, -4.05, -3.85, -3.69, -3.02, -2.89, -2.31, -2.31, -1.76, -0.89, 0.0, 0.0, 0.0, 0.0, 0.0, 1.62, 3.65, 3.65, 5.29, 5.9, 6.45, 5.95, 6.2, 5.0, 2.71, 2.6, 2.71, 2.19, 0.0, 2.06, 0.0, 0.0, -2.57, -3.86, 0.0, 4.46, 6.64, 5.87, 3.68, 0.83, -0.89, -1.83, -1.89, -1.94, -0.92, -0.98, -2.64, -3.25, 0.0, 5.6, 5.6, 3.96, 2.06, 2.54, 9.17, 13.7, 13.7, -11.07, -11.07, -11.07, -10.8, -10.59, -10.59, -10.3, -10.06, -10.06, -10.06, -10.06, -10.06, -10.06, -9.46, -9.46, -9.46, -9.17, -8.87, -8.56, -8.56, -8.24, -8.24, -7.89, -7.89, -7.51, -7.51, -7.09, -7.09, -7.09, -6.63, -6.35, -5.65, -5.44, -5.48, -5.0, -5.48, -5.48, -5.48, -5.0, -5.0, -4.54, -4.8, -4.05, -3.53, -3.53, -3.53, -2.89, -3.02, -3.02, -2.6, -1.76, -0.97, -1.02, 0.0, 0.0, 0.0, 1.62, 3.11, 3.65, 3.82, 3.82, 4.6, 3.39, 3.25, 3.82, 2.19, 2.02, 1.76, 0.0, 0.0, 0.0, 0.0, 0.0, 0.0, 0.0, 0.0, 2.3, 4.51, 5.46, 2.49, 0.91, 0.0, -0.99, -2.32, -2.4, -2.32, -2.54, -3.04, -3.44, 1.83, 7.54, 7.19, 5.11, 2.13, 5.6, 9.17, 11.88, 11.88, -11.07, -11.07, -11.07, -11.07, -10.59, -10.59, -10.3, -10.06, -10.06, -10.06, -10.06, -10.06, -9.46, -9.46, -9.46, -9.46, -9.46, -8.56, -8.56, -8.56, -8.24, -7.95, -7.61, -7.61, -7.61, -7.24, -7.24, -6.84, -6.84, -6.84, -6.4, -6.12, -6.12, -5.44, -5.48, -5.48, -5.75, -5.75, -5.75, -5.26, -5.05, -5.32, -4.87, -4.15, -3.61, -3.53, -3.69, -3.69, -3.69, -3.39, -2.6, -1.92, -2.02, -1.18, -1.22, 0.0, 1.62, 2.97, 3.11, 3.11, 3.65, 3.49, 3.25, 3.11, 2.6, 2.19, 0.0, 0.0, 0.0, 0.0, 0.0, 0.0, 2.57, 3.68, 2.78, -1.27, -2.28, -2.4, -2.47, -1.01, 0.0, 0.92, 0.0, 0.0, 0.0, 0.0, -1.48, -3.56, 0.0, 4.55, 6.3, 6.0, 3.68, 4.24, 7.19, 9.17, 9.48, 9.48, -10.96, -10.96, -10.7, -10.51, -10.51, -10.23, -10.01, -9.72, -9.72, -9.72, -9.72, -9.46, -9.46, -9.46, -9.46, -9.46, -9.46, -8.85, -8.85, -8.85, -7.95, -7.95, -7.61, -7.61, -7.61, -7.24, -7.24, -7.24, -6.84, -6.84, -6.84, -6.84, -6.12, -5.89, -5.89, -5.48, -5.48, -5.75, -5.75, -5.52, -5.8, -5.32, -5.7, -5.64, -3.78, -3.53, -4.31, -4.31, -4.31, -4.13, -3.51, -2.71, -2.95, -2.23, -1.22, 0.0, 1.33, 2.58, 2.58, 3.11, 3.11, 3.49, 3.39, 2.28, 0.0, 0.0, 0.0, 0.0, 0.0, 0.0, 0.0, 0.0, 2.89, 4.23, 7.63, 4.2, -2.89, -7.66, -7.99, -5.78, -2.65, 0.0, 1.01, 1.23, 1.15, 1.21, 1.53, 0.0, 1.9, 5.45, 4.98, 3.85, 3.25, 4.24, 7.44, 9.17, 6.0, 9.48, -10.96, -10.96, -10.51, -10.51, -10.51, -10.51, -10.01, -10.01, -9.72, -9.72, -9.46, -9.46, -9.46, -9.46, -9.46, -9.46, -8.85, -8.85, -8.85, -8.24, -8.24, -8.24, -7.9, -7.61, -7.61, -7.61, -7.24, -7.24, -7.24, -6.84, -6.84, -6.84, -6.84, -6.56, -6.16, -6.16, -5.92, -5.48, -5.75, -5.52, -5.8, -5.85, -5.7, -5.28, -5.64, -4.12, -5.09, -5.41, -5.52, -4.92, -4.07, -4.4, -3.81, -2.97, -1.16, 0.0, 1.26, 1.26, 1.33, 1.33, 1.62, 1.54, 1.49, 0.0, 0.0, 0.0, 0.0, 0.0, 0.0, 0.0, 0.0, 0.0, 0.0, 2.57, 8.8, 14.22, 8.67, -3.49, -7.36, -5.81, -4.24, -1.11, 0.0, 1.9, 2.92, 4.08, 4.52, 4.24, 4.52, 3.98, 3.65, 2.72, 3.36, 4.38, 6.0, 7.44, 5.8, 6.0, -10.79, -10.79, -10.79, -10.51, -10.51, -10.51, -10.3, -10.01, -10.01, -9.42, -9.46, -9.46, -9.46, -9.46, -9.46, -8.85, -8.85, -8.85, -8.53, -8.24, -8.24, -8.24, -8.24, -7.9, -7.61, -7.61, -7.61, -7.24, -7.24, -6.96, -6.56, -6.58, -6.58, -6.58, -6.58, -6.16, -6.16, -5.92, -5.75, -5.52, -5.8, -5.85, -6.17, -6.17, -5.46, -5.0, -4.6, -4.92, -5.06, -5.06, -4.2, -4.56, -3.81, -2.17, 0.0, 0.0, 1.05, 1.11, 1.11, 1.33, 1.33, 1.54, 0.0, 0.0, 0.0, 0.0, 0.0, 0.0, 0.0, 0.0, 1.91, 0.0, 0.0, 0.0, 3.07, 11.41, 17.67, 12.19, 1.96, -2.13, 0.0, 0.0, 2.72, 3.02, 3.68, 4.08, 4.89, 4.24, 3.88, 2.56, 1.3, 1.42, 1.72, 1.96, 3.25, 3.14, 7.19, 7.19, -10.41, -10.41, -10.41, -10.15, -10.15, -10.15, -9.94, -9.94, -9.66, -9.42, -9.13, -9.13, -9.13, -9.13, -8.85, -8.85, -8.85, -8.85, -8.53, -8.24, -8.24, -8.24, -8.24, -7.9, -7.61, -7.61, -7.61, -7.61, -7.24, -6.96, -6.96, -6.7, -6.58, -6.58, -6.58, -6.58, -6.58, -6.45, -6.2, -6.2, -5.8, -5.8, -5.85, -5.85, -6.11, -5.32, -4.31, -4.07, -4.2, -4.2, -4.2, -3.32, -2.83, -0.99, 0.0, 0.0, 0.89, 1.05, 1.11, 1.11, 1.33, 1.47, 1.4, 0.0, 0.0, 2.39, 2.02, 0.0, 2.02, 2.71, 1.91, 0.0, 0.0, -3.96, -6.6, 0.0, 4.93, 12.72, 11.91, 8.8, 9.46, 8.0, 6.01, 4.67, 3.25, 3.12, 2.72, 2.81, 1.47, 1.3, 0.0, 0.0, 0.0, 0.0, 7.19, 12.58, 12.58, 12.58, -10.41, -10.41, -10.41, -10.41, -10.15, -9.94, -9.94, -9.94, -9.94, -9.42, -9.42, -9.13, -9.13, -8.85, -8.85, -8.85, -8.85, -8.85, -8.53, -8.24, -8.24, -8.24, -8.24, -7.9, -7.9, -7.61, -7.89, -7.89, -7.61, -7.61, -7.24, -7.24, -6.97, -6.97, -6.58, -6.58, -6.87, -6.87, -6.45, -6.2, -6.5, -5.8, -6.11, -6.11, -6.11, -5.54, -4.5, -3.53, -2.97, -3.06, -3.06, -2.35, -1.6, -0.89, 0.0, 0.0, 0.0, 0.0, 0.0, 0.0, 0.0, 0.0, 0.0, 0.0, 0.0, 2.39, 2.02, 2.1, 3.82, 5.0, 3.53, 0.0, -1.64, -5.11, -6.65, -8.06, -1.62, 4.65, 11.74, 13.83, 13.68, 12.35, 8.42, 6.64, 4.16, 2.9, 2.56, 1.42, 0.0, 0.0, 0.0, 0.0, 0.0, 3.25, 12.58, 12.96, 12.96, 12.96, -10.41, -10.41, -10.41, -10.23, -9.94, -9.94, -9.94, -9.94, -9.94, -9.94, -9.42, -9.42, -9.13, -8.85, -8.85, -8.85, -8.85, -8.53, -8.53, -8.24, -8.24, -8.24, -8.24, -8.2, -8.2, -7.89, -7.89, -7.89, -7.89, -7.61, -7.61, -7.24, -6.97, -6.97, -6.97, -6.58, -6.87, -6.87, -6.45, -6.5, -6.5, -5.8, -5.8, -5.8, -5.62, -5.09, -4.23, -4.31, -3.53, -2.89, -2.28, -2.28, -1.47, -0.81, 0.0, 0.0, 0.0, 0.0, 0.0, 0.0, 0.0, 0.0, 0.0, 0.0, 0.0, 2.39, 1.93, 2.97, 4.6, 3.39, 0.0, 0.0, -3.07, -4.93, -6.0, -4.52, -2.88, 1.41, 5.87, 12.41, 16.21, 15.59, 12.03, 6.97, 4.79, 3.69, 2.89, 1.23, 0.0, 0.0, 0.0, -1.77, 0.0, 12.3, 12.96, 12.42, 12.42, 12.42, -10.23, -10.23, -10.23, -10.23, -10.23, -9.59, -9.59, -9.59, -9.59, -9.37, -9.08, -9.08, -9.08, -8.85, -8.85, -8.85, -8.53, -8.53, -8.24, -8.24, -8.24, -8.24, -8.24, -8.24, -8.2, -7.89, -7.89, -7.89, -7.89, -7.61, -7.61, -7.61, -6.97, -6.97, -6.97, -6.58, -6.87, -6.87, -6.76, -6.76, -6.5, -6.04, -6.04, -5.32, -5.32, -4.8, -4.8, -4.05, -3.46, -3.53, -2.89, -2.11, -1.54, -1.47, -0.81, 0.0, 0.0, 0.0, 0.0, 0.0, 0.0, 0.0, 0.0, 0.0, 0.0, 0.0, 0.0, 0.0, 0.0, 2.02, 0.0, -1.52, -1.64, -3.04, -3.25, -1.53, 0.0, 0.0, 2.72, 7.39, 12.64, 14.98, 11.74, 8.12, 6.06, 3.79, 2.05, 0.0, 0.0, -1.38, -3.25, -2.37, 11.87, 12.52, 12.44, 11.98, 11.98, 11.98, -9.86, -9.86, -9.86, -9.86, -9.86, -9.86, -9.59, -9.59, -9.37, -9.37, -9.37, -9.08, -9.08, -8.82, -8.53, -8.53, -8.53, -8.53, -8.24, -8.24, -8.24, -8.24, -8.24, -8.24, -7.9, -7.89, -7.89, -7.89, -7.89, -7.61, -7.61, -7.61, -6.97, -6.97, -6.97, -6.87, -6.87, -6.87, -6.76, -6.5, -6.5, -6.04, -6.36, -5.86, -5.32, -4.8, -4.8, -4.05, -4.05, -3.69, -2.89, -2.76, -2.28, -1.47, -0.77, 0.0, 0.0, 0.0, 0.0, 0.0, 0.0, 0.0, 0.0, 0.0, 0.0, 0.0, 0.0, 0.0, 0.0, 0.0, -1.69, -1.58, -1.64, -1.55, -1.61, 0.0, 0.0, 0.0, 2.65, 5.65, 7.87, 9.87, 9.6, 9.99, 8.63, 4.2, 0.0, -0.98, -2.11, -5.27, -4.65, 8.85, 11.91, 11.61, 11.71, 11.78, 11.78, 11.78, -9.86, -9.86, -9.86, -9.86, -9.86, -9.86, -9.37, -9.37, -9.37, -9.37, -9.37, -9.37, -9.08, -8.82, -8.82, -8.53, -8.53, -8.24, -8.24, -8.24, -8.24, -8.24, -8.24, -8.24, -7.9, -7.89, -7.89, -7.89, -7.61, -7.61, -7.61, -7.33, -6.97, -7.26, -7.26, -6.87, -6.87, -6.2, -6.5, -6.5, -6.04, -6.36, -6.36, -5.86, -5.86, -4.8, -4.8, -4.05, -4.05, -3.69, -3.53, -2.89, -2.28, -2.17, -0.81, -0.77, 0.0, 0.0, 0.0, 0.0, 0.0, 0.0, 0.0, 0.0, 0.0, 0.0, 0.0, 0.0, 0.0, 0.0, 0.0, 0.0, -1.44, -1.5, -1.38, 0.0, 0.0, 0.0, 2.89, 4.5, 5.65, 5.53, 9.56, 13.57, 12.0, 6.55, 0.0, -4.43, -6.21, -7.28, 0.0, 11.91, 11.18, 10.75, 10.84, 10.41, 10.41, 10.41, -9.86, -9.86, -9.86, -9.5, -9.66, -9.66, -9.37, -9.37, -9.37, -9.37, -9.37, -9.37, -9.37, -8.82, -8.82, -8.82, -8.24, -8.24, -8.24, -8.24, -8.24, -8.24, -8.24, -7.9, -7.9, -7.9, -7.61, -7.61, -7.61, -7.61, -7.61, -6.97, -7.26, -7.26, -6.87, -6.87, -6.61, -6.5, -6.5, -6.04, -6.04, -6.04, -5.86, -5.86, -5.86, -5.3, -4.8, -4.23, -4.05, -3.69, -3.53, -2.89, -2.28, -2.17, -0.81, -0.77, -0.77, 0.0, 0.0, 0.0, 0.0, 0.0, 0.0, 0.0, 0.0, 0.0, 0.0, 0.0, 0.0, 0.0, 0.0, 0.0, 0.0, -1.5, -1.38, 0.0, 0.0, 0.0, 3.1, 2.89, 3.07, 4.01, 9.54, 13.27, 12.91, 8.0, -3.39, -7.27, -8.22, -11.2, 10.8, 10.68, 10.32, 9.63, 9.54, 9.11, 9.11, 9.11, -9.86, -9.86, -9.5, -9.3, -9.3, -9.3, -9.3, -9.37, -9.37, -9.37, -9.37, -9.37, -9.37, -8.82, -8.82, -8.82, -8.24, -8.24, -8.24, -8.24, -8.24, -8.24, -8.24, -7.9, -7.9, -7.9, -7.61, -7.61, -7.61, -7.61, -6.97, -7.26, -7.26, -6.98, -6.61, -6.61, -6.5, -6.5, -6.04, -6.04, -6.04, -5.54, -5.54, -5.86, -5.86, -5.3, -5.09, -4.5, -4.31, -4.31, -3.69, -3.11, -2.97, -1.47, -1.47, -0.71, -0.77, -0.73, 0.0, 0.0, 0.0, 0.0, 0.0, 0.0, -1.14, 0.0, 0.0, 0.0, 0.0, 0.0, 0.0, 0.0, -1.22, -1.39, -1.5, -1.55, 0.0, 0.0, 1.72, 1.63, 3.2, 2.89, 5.81, 7.87, 9.57, 6.42, 6.4, 7.59, 10.18, 10.0, 11.03, 10.79, 10.6, 10.05, 9.97, 9.54, 9.54, 9.54, -9.86, -9.5, -9.3, -9.3, -9.3, -9.3, -9.3, -9.02, -9.02, -9.02, -9.02, -9.37, -9.12, -8.82, -8.82, -8.82, -8.53, -8.24, -8.24, -8.24, -8.24, -8.24, -7.9, -7.9, -7.9, -7.9, -7.61, -7.61, -7.61, -6.97, -6.97, -7.26, -6.98, -6.61, -6.61, -6.61, -6.5, -6.5, -6.04, -6.04, -6.04, -5.54, -5.54, -5.54, -5.54, -5.0, -5.09, -5.09, -4.5, -4.31, -3.69, -3.11, -3.11, -2.17, -1.47, -1.4, -0.71, -0.67, -0.73, -0.73, -0.8, -0.76, -0.84, -0.94, -0.94, -1.01, 0.0, 0.0, 0.0, 0.0, 0.0, 0.0, 0.0, -2.39, -2.71, -2.82, -1.55, 0.0, 0.0, 0.0, 1.58, 1.58, 2.81, 2.79, 4.48, 8.35, 16.09, 10.48, 9.1, 9.1, 10.38, 10.7, 10.88, 10.46, 10.05, 9.54, 9.54, 9.54, -9.3, -9.3, -9.3, -9.3, -9.3, -9.3, -9.3, -9.02, -9.02, -9.02, -9.02, -9.12, -9.12, -9.12, -8.82, -8.82, -8.53, -8.53, -8.24, -8.24, -8.24, -7.9, -7.9, -7.9, -7.9, -7.9, -7.61, -7.33, -6.97, -6.97, -7.26, -6.61, -6.61, -6.61, -6.61, -6.5, -6.5, -6.5, -6.04, -6.04, -6.04, -5.54, -5.54, -5.54, -5.54, -5.0, -4.8, -4.23, -4.5, -3.69, -3.69, -2.89, -3.11, -2.17, -1.47, -1.4, -0.71, -0.71, -0.67, -0.73, -0.69, -0.76, -0.84, -0.84, -0.94, -1.07, -1.54, -1.54, 0.0, 0.0, 0.0, 0.0, 0.0, -1.45, -3.61, -3.92, -2.93, -1.55, 0.0, 0.0, 0.0, 0.0, 0.0, 0.0, 5.81, 17.59, 14.79, 11.33, 9.67, 8.55, 9.77, 10.21, 11.03, 10.68, 10.05, 9.63, 9.63, 9.63, -9.3, -9.3, -9.3, -9.3, -9.3, -9.3, -9.3, -9.02, -9.02, -8.78, -8.78, -9.12, -9.12, -9.12, -8.82, -8.82, -8.53, -8.53, -8.24, -8.24, -7.9, -7.9, -7.9, -7.9, -7.61, -7.61, -7.61, -7.26, -7.26, -7.26, -6.61, -6.61, -6.61, -6.61, -6.5, -6.5, -6.5, -6.5, -6.04, -6.04, -6.04, -5.54, -5.54, -5.54, -5.54, -5.0, -5.0, -4.8, -4.23, -3.69, -3.69, -2.89, -2.11, -2.01, -1.36, -1.29, -1.4, -0.71, -0.67, -0.73, -0.69, -0.76, -0.76, -0.84, -0.84, -1.84, -2.4, -1.25, 0.0, 0.0, 0.0, -1.28, 0.0, 0.0, 0.0, -1.52, -1.64, -1.71, -1.55, -1.55, -1.61, 0.0, 0.0, 3.73, 13.8, 17.81, 13.29, 10.99, 10.04, 9.67, 9.3, 9.77, 10.0, 10.27, 10.05, 9.63, 9.63, 9.63, -9.3, -9.3, -9.3, -9.3, -9.3, -9.3, -9.3, -8.78, -8.78, -8.78, -8.78, -9.12, -9.12, -9.12, -9.12, -8.82, -8.53, -8.53, -8.53, -8.24, -7.9, -7.9, -7.9, -7.61, -7.61, -7.61, -7.26, -7.26, -6.98, -6.98, -6.61, -6.61, -6.61, -6.2, -6.5, -6.5, -6.5, -6.04, -6.04, -6.04, -6.04, -5.54, -5.54, -5.26, -5.26, -4.73, -4.73, -4.8, -4.23, -3.61, -3.69, -3.02, -2.11, -2.11, -2.01, -1.29, -1.29, -1.4, -1.32, -1.32, -1.44, -1.36, -1.49, -1.65, -1.75, -1.75, -1.95, -2.54, -1.69, 0.0, -1.52, 0.0, 0.0, 0.0, 1.22, 1.39, 0.0, -1.64, -3.44, -3.04, -3.44, -1.9, 1.7, 2.99, 27.27, 14.55, 11.75, 9.1, 8.93, 8.82, 8.94, 9.86, 10.09, 10.0, 10.46, 9.04, 9.04, 9.04, -9.3, -9.3, -9.3, -9.3, -9.3, -9.3, -9.08, -8.78, -8.78, -8.78, -8.78, -8.78, -8.78, -9.12, -9.12, -8.82, -8.22, -8.22, -8.22, -7.93, -7.61, -7.61, -7.61, -7.61, -7.61, -7.61, -6.98, -6.98, -6.98, -6.61, -6.61, -6.61, -6.2, -6.2, -6.5, -6.5, -6.04, -6.04, -6.04, -6.04, -6.04, -5.54, -5.32, -5.05, -5.05, -4.54, -4.54, -4.54, -4.23, -3.61, -3.46, -2.82, -2.58, -1.97, -2.01, -2.01, -1.29, -1.29, -1.32, -1.32, -1.32, -1.44, -1.58, -1.58, -1.75, -1.75, -2.98, -3.35, -3.35, -2.1, -1.76, 0.0, 0.0, 0.0, 0.0, 0.0, 0.0, -1.58, -3.19, -3.32, -3.96, -2.02, 0.0, 0.0, 28.61, 21.35, 14.07, 9.67, 8.94, 8.41, 9.3, 9.67, 9.67, 10.4, 10.27, 9.63, 9.63, 9.63, -9.3, -9.3, -9.3, -9.3, -9.3, -9.08, -9.08, -8.78, -8.78, -8.78, -8.78, -8.78, -8.78, -8.78, -8.78, -8.22, -8.22, -8.22, -8.22, -8.22, -7.61, -7.61, -7.61, -7.61, -7.61, -6.98, -6.98, -6.98, -6.98, -6.61, -6.61, -6.61, -6.2, -5.95, -6.24, -5.8, -6.04, -6.04, -6.04, -6.04, -6.04, -5.32, -5.05, -5.05, -5.05, -4.54, -4.54, -3.98, -4.23, -3.61, -3.46, -2.7, -2.58, -2.58, -1.87, -2.01, -1.29, -1.29, -1.29, -1.32, -1.32, -1.44, -1.44, -1.58, -2.31, -2.69, -2.69, -2.98, -4.21, -3.82, -3.82, -1.76, -1.45, 0.0, 0.0, 0.0, -1.22, -1.45, -4.23, -4.58, -4.1, -2.28, 0.0, -2.12, 0.0, 27.72, 17.57, 12.89, 8.94, 8.41, 8.75, 8.69, 10.04, 10.09, 9.7, 10.0, 10.0, 10.0, -9.3, -9.3, -9.3, -9.3, -9.3, -9.08, -9.08, -8.78, -8.78, -8.78, -8.78, -8.78, -8.78, -8.78, -8.78, -8.52, -8.22, -8.22, -8.22, -8.22, -7.91, -7.61, -7.61, -6.98, -6.98, -6.98, -6.98, -6.98, -6.61, -6.34, -6.34, -5.95, -5.95, -5.95, -5.95, -5.52, -5.52, -5.75, -5.75, -5.75, -5.75, -5.05, -5.05, -5.05, -5.05, -4.54, -4.54, -4.23, -4.23, -3.61, -3.46, -2.7, -2.7, -2.58, -1.87, -2.01, -1.91, -1.29, -1.29, -1.29, -1.32, -1.32, -1.44, -2.23, -2.44, -2.44, -2.83, -2.83, -4.0, -5.29, -5.29, -3.25, -3.11, -2.58, -2.58, -2.58, -2.28, -2.58, -4.05, -3.19, -2.06, 0.0, 0.0, -1.73, -2.15, 12.39, 19.4, 12.73, 8.85, 8.22, 8.22, 8.22, 8.53, 9.27, 9.67, 10.09, 10.09, 10.09, -9.3, -9.3, -9.3, -9.3, -9.08, -9.08, -9.08, -8.78, -8.78, -8.78, -8.78, -8.78, -8.78, -8.78, -8.52, -8.52, -8.22, -8.22, -8.22, -8.22, -8.22, -7.6, -7.32, -7.32, -6.98, -6.98, -6.98, -6.61, -6.34, -6.34, -6.34, -5.95, -6.24, -6.24, -5.95, -5.52, -5.52, -5.52, -5.52, -5.52, -5.05, -5.05, -5.05, -5.05, -5.05, -4.54, -4.54, -4.23, -4.23, -3.61, -3.46, -2.53, -2.53, -2.42, -1.87, -1.87, -1.78, -1.78, -1.29, -1.29, -1.29, -1.4, -1.4, -2.23, -2.23, -2.44, -2.57, -3.32, -3.63, -4.34, -4.56, -5.0, -3.25, -2.58, -2.58, -2.58, -1.16, -1.22, -1.28, -1.64, 0.0, 0.0, -1.63, -1.65, -3.75, 0.0, 19.67, 11.38, 8.31, 8.05, 7.51, 7.24, 8.85, 9.17, 9.27, 10.48, 10.48, 10.48, -8.94, -8.94, -8.94, -9.08, -9.08, -9.08, -9.08, -8.78, -8.78, -8.78, -8.78, -8.78, -8.78, -8.78, -8.52, -8.52, -8.52, -8.22, -8.22, -7.9, -7.9, -7.6, -7.6, -7.6, -6.98, -6.98, -6.61, -6.61, -6.34, -6.34, -6.34, -5.95, -6.24, -6.24, -5.95, -5.52, -5.52, -5.52, -5.52, -5.52, -5.05, -5.05, -5.05, -5.05, -5.05, -4.54, -4.8, -4.23, -3.61, -3.61, -3.25, -2.53, -2.53, -1.84, -1.84, -1.26, -1.26, -1.78, -1.2, -1.29, -1.29, -1.29, -1.4, -2.06, -2.23, -2.23, -3.32, -3.32, -3.32, -4.34, -4.56, -5.54, -4.6, -3.39, -1.33, -1.22, -1.22, 0.0, 0.0, 0.0, 0.0, -1.43, -3.1, -3.07, -3.45, -3.44, 21.9, 7.2, 5.02, 5.63, 5.6, 6.63, 7.24, 8.85, 9.5, 10.24, 10.24, 10.24, -9.21, -9.21, -8.94, -8.73, -8.73, -8.73, -9.08, -8.78, -8.78, -8.78, -8.78, -8.78, -8.78, -8.78, -8.52, -8.19, -8.19, -7.9, -7.9, -7.9, -7.9, -7.6, -7.6, -7.6, -7.27, -7.27, -6.9, -6.9, -6.63, -6.63, -6.24, -6.24, -6.24, -6.24, -6.24, -5.52, -5.52, -5.52, -5.52, -5.05, -5.05, -5.05, -5.05, -5.05, -4.3, -4.54, -3.98, -3.61, -3.61, -3.46, -2.65, -2.53, -2.53, -1.84, -1.84, -1.18, -1.26, -1.26, -1.26, -1.2, -1.29, -1.29, -1.29, -2.06, -2.06, -2.06, -3.06, -3.06, -3.32, -4.0, -4.2, -4.2, -4.2, -3.68, -1.33, -1.22, -1.22, 0.0, 0.0, -1.52, -2.82, -3.14, -4.38, -4.24, -3.36, -2.49, 0.0, -0.0, 2.57, 4.05, 6.2, 6.0, 7.78, 8.24, 8.85, 10.19, 10.19, 10.19, -9.21, -9.21, -8.94, -8.73, -8.73, -8.73, -9.08, -8.78, -8.78, -8.78, -8.78, -8.78, -8.78, -8.78, -8.52, -8.19, -8.19, -7.9, -7.9, -7.9, -7.9, -7.6, -7.6, -7.6, -7.27, -7.27, -6.9, -6.9, -6.63, -6.63, -6.24, -6.24, -6.24, -6.24, -6.24, -5.52, -5.52, -5.52, -5.52, -5.05, -5.05, -5.05, -5.05, -5.05, -4.3, -4.54, -3.98, -3.61, -3.61, -3.46, -2.65, -2.53, -2.53, -1.84, -1.84, -1.18, -1.26, -1.26, -1.26, -1.2, -1.29, -1.29, -1.29, -2.06, -2.06, -2.06, -3.06, -3.06, -3.32, -4.0, -4.2, -4.2, -4.2, -3.68, -1.33, -1.22, 0.0, 0.0, 0.0, -1.52, -2.82, -4.39, -4.24, -4.52, -3.16, -1.82, -2.15, 0.0, 13.59, 11.38, 9.49, 8.31, 8.05, 8.59, 8.85, 9.27, 9.27, 9.27]}]